Darstellungsparameter: Aktuell verwendete Einstellungen:
Skalierung der Graphiken ... ?
xyx+y,   Skalierungsfaktor:      Skalierung: Modus: x, Faktor: 1
Darstellungszeitraum ... ?
Vom - - bis: - -   Zeitraum: 11.12.2016 - 10.12.2019
Min/Max/Avg-Anzeige ... ?
Zeige MMA aktuell
Zeige MMA Monat
Zeige MMA alles
Zeige --A aktuell
Zeige --A Monat
Zeige --A alles
Keine MMA-Anzeige
MMA:
Average (ber die Originaldaten)
MMA-Basis: 11.12.2016 - 10.12.2019
Quicknavigation für Darstellung... ?
Tage:      1T, 2T, 3T, 5T -1T -2T -3T -5T +1T +2T +3T +5T
Wochen: 1W, 2W, 3W -1W -2W -3W +1W +2W +3W
Monate: 1M, 3M, 6M -1M -3M -6M +1M +3M +6M
Jahre:    1J, 3J, 5J, 10J -1J -3J -5J -10J +1J +3J +5J +10J
Nutze für die Darstellung ... ?
Originaldaten oder ...
Mittelwerte Minima Maxima auf...
Stundenbasis Tagesbasis Wochenbasis
Monatsbasis Jahresbasis      Datenbasis: Mittelwerte auf Tagesbasis
Darstellen als:
Statistik (Auto) Statistik J:M      Darstellung:
Zur Graphik,    zurück zur Übersicht aller Sensoren.
 
Tabellarische Datenbersicht: ?
 
Sensor: Nr:Datum:Temp:Feuchte:
Aussen-T/F 1 11-12-2016 00:00:00 7.3925 C 25.0750 %
2 12-12-2016 00:00:00 5.93583 C 39.9833 %
3 13-12-2016 00:00:00 3.34583 C 65.2250 %
4 14-12-2016 00:00:00 5.935 C 48.1167 %
5 15-12-2016 00:00:00 6.37417 C 39.5917 %
6 16-12-2016 00:00:00 4.1375 C 22.6833 %
7 17-12-2016 00:00:00 3.35083 C 34.1750 %
8 18-12-2016 00:00:00 4.61167 C 41.6167 %
9 19-12-2016 00:00:00 3.69083 C 40.5917 %
10 20-12-2016 00:00:00 -0.2625 C 40.4500 %
11 21-12-2016 00:00:00 1.50833 C 37.0917 %
12 22-12-2016 00:00:00 3.135 C 42.5833 %
13 23-12-2016 00:00:00 3.4975 C 50.4417 %
14 24-12-2016 00:00:00 6.43833 C 23.7750 %
15 25-12-2016 00:00:00 7.98083 C 27.9917 %
16 26-12-2016 00:00:00 6.85083 C 28.5167 %
17 27-12-2016 00:00:00 3.36083 C 31.3417 %
18 28-12-2016 00:00:00 2.765 C 32.3750 %
19 29-12-2016 00:00:00 -2.31583 C 49.4333 %
20 30-12-2016 00:00:00 -2.7975 C 45.7583 %
21 31-12-2016 00:00:00 -4.97167 C 40.1167 %
22 01-01-2017 00:00:00 -2.645 C 37.8583 %
23 02-01-2017 00:00:00 -0.26417 C 43.1250 %
24 03-01-2017 00:00:00 0.27717 C 59.5652 %
25 04-01-2017 00:00:00 2.4725 C 33.8417 %
Sensor: Nr:Datum:Temp:Feuchte:
Aussen-T/F 26 05-01-2017 00:00:00 -1.62667 C 32.9833 %
27 06-01-2017 00:00:00 -8.04417 C 33.4250 %
28 07-01-2017 00:00:00 -5.00833 C 28.8833 %
29 08-01-2017 00:00:00 -0.27333 C 48.8667 %
30 09-01-2017 00:00:00 1.305 C 49.9167 %
31 10-01-2017 00:00:00 0.33833 C 54.5917 %
32 11-01-2017 00:00:00 2.7675 C 49.3083 %
33 12-01-2017 00:00:00 3.39 C 26.6583 %
34 13-01-2017 00:00:00 1.16833 C 32.4417 %
35 14-01-2017 00:00:00 1.5625 C 26.2083 %
36 15-01-2017 00:00:00 -0.2875 C 38.9417 %
37 16-01-2017 00:00:00 -2.95333 C 40.8917 %
38 17-01-2017 00:00:00 -5.14333 C 33.6917 %
39 18-01-2017 00:00:00 -7.12917 C 33.7333 %
40 19-01-2017 00:00:00 -8.02917 C 34.5500 %
41 20-01-2017 00:00:00 -8.47167 C 31.5833 %
42 21-01-2017 00:00:00 -7.91167 C 34.8083 %
43 22-01-2017 00:00:00 -9.46417 C 33.6583 %
44 23-01-2017 00:00:00 -6.45667 C 35.5667 %
45 24-01-2017 00:00:00 -1.59917 C 36.1417 %
46 25-01-2017 00:00:00 -2.06134 C 21.1008 %
47 26-01-2017 00:00:00 -3.27167 C 23.9917 %
48 27-01-2017 00:00:00 -4.87833 C 33.7583 %
49 28-01-2017 00:00:00 -3.13417 C 35.4000 %
50 29-01-2017 00:00:00 1.74917 C 38.4417 %
Sensor: Nr:Datum:Temp:Feuchte:
Aussen-T/F 51 30-01-2017 00:00:00 3.64583 C 50.8083 %
52 31-01-2017 00:00:00 2.45083 C 33.8167 %
53 01-02-2017 00:00:00 2.82417 C 29.1583 %
54 02-02-2017 00:00:00 3.84417 C 50.3250 %
55 03-02-2017 00:00:00 4.79833 C 53.5417 %
56 04-02-2017 00:00:00 4.85833 C 34.5500 %
57 05-02-2017 00:00:00 3.81333 C 37.2333 %
58 06-02-2017 00:00:00 2.905 C 39.3000 %
59 07-02-2017 00:00:00 3.68333 C 32.7000 %
60 08-02-2017 00:00:00 2.47583 C 26.7500 %
61 09-02-2017 00:00:00 -0.87083 C 28.4083 %
62 10-02-2017 00:00:00 0.07583 C 21.2250 %
63 11-02-2017 00:00:00 1.1675 C 39.9583 %
64 12-02-2017 00:00:00 1.77167 C 49.6917 %
65 13-02-2017 00:00:00 2.44917 C 24.7083 %
66 14-02-2017 00:00:00 0.02083 C 31.7250 %
67 15-02-2017 00:00:00 0.65333 C 38.4083 %
68 16-02-2017 00:00:00 2.98583 C 54.9000 %
69 17-02-2017 00:00:00 5.05167 C 53.0917 %
70 18-02-2017 00:00:00 5.56917 C 38.1000 %
71 19-02-2017 00:00:00 2.74417 C 39.9417 %
72 20-02-2017 00:00:00 7.83667 C 30.5667 %
73 21-02-2017 00:00:00 9.77417 C 33.2917 %
74 22-02-2017 00:00:00 10.86167 C 22.7083 %
75 23-02-2017 00:00:00 8.95167 C 22.1250 %
Sensor: Nr:Datum:Temp:Feuchte:
Aussen-T/F 76 24-02-2017 00:00:00 4.4525 C 26.0917 %
77 25-02-2017 00:00:00 3.06333 C 34.4667 %
78 26-02-2017 00:00:00 8.2025 C 22.5667 %
79 27-02-2017 00:00:00 10.56417 C 22.7417 %
80 28-02-2017 00:00:00 5.03667 C 25.5167 %
81 01-03-2017 00:00:00 6.07333 C 27.2250 %
82 02-03-2017 00:00:00 7.615 C 21.8417 %
83 03-03-2017 00:00:00 5.64417 C 27.7417 %
84 04-03-2017 00:00:00 10.41667 C 24.1750 %
85 05-03-2017 00:00:00 6.48667 C 29.1917 %
86 06-03-2017 00:00:00 5.80083 C 30.7583 %
87 07-03-2017 00:00:00 5.375 C 37.1500 %
88 08-03-2017 00:00:00 4.1425 C 57.5333 %
89 09-03-2017 00:00:00 10.71 C 40.6917 %
90 10-03-2017 00:00:00 7.1775 C 21.1917 %
91 11-03-2017 00:00:00 5.8775 C 29.0333 %
92 12-03-2017 00:00:00 5.82167 C 27.9833 %
93 13-03-2017 00:00:00 5.775 C 26.7667 %
94 14-03-2017 00:00:00 8.80333 C 26.7000 %
95 15-03-2017 00:00:00 10.8 C 22.7333 %
96 16-03-2017 00:00:00 7.71667 C 32.6833 %
97 17-03-2017 00:00:00 8.33917 C 22.4167 %
98 18-03-2017 00:00:00 8.97583 C 28.3167 %
99 19-03-2017 00:00:00 12.0025 C 29.0167 %
100 20-03-2017 00:00:00 11.53917 C 20.0000 %
Sensor: Nr:Datum:Temp:Feuchte:
Aussen-T/F 101 21-03-2017 00:00:00 8.86 C 25.1667 %
102 22-03-2017 00:00:00 5.1675 C 32.8583 %
103 23-03-2017 00:00:00 8.915 C 31.3000 %
104 24-03-2017 00:00:00 9.54583 C 23.0250 %
105 25-03-2017 00:00:00 9.54417 C 26.8417 %
106 26-03-2017 00:00:00 9.08696 C 20.0000 %
107 27-03-2017 00:00:00 8.34583 C 26.6083 %
108 28-03-2017 00:00:00 9.97417 C 22.6583 %
109 29-03-2017 00:00:00 12.77833 C 22.9417 %
110 30-03-2017 00:00:00 14.22417 C 22.9833 %
111 31-03-2017 00:00:00 13.35333 C 29.3000 %
112 01-04-2017 00:00:00 13.83417 C 20.9000 %
113 02-04-2017 00:00:00 11.94167 C 24.9167 %
114 03-04-2017 00:00:00 10.62 C 26.7750 %
115 04-04-2017 00:00:00 9.20333 C 28.3417 %
116 05-04-2017 00:00:00 8.82333 C 22.4667 %
117 06-04-2017 00:00:00 9.21083 C 20.3667 %
118 07-04-2017 00:00:00 10.40583 C 23.0667 %
119 08-04-2017 00:00:00 13.42167 C 20.0917 %
120 09-04-2017 00:00:00 12.59 C 28.2250 %
121 10-04-2017 00:00:00 10.98833 C 23.4333 %
122 11-04-2017 00:00:00 10.6675 C 20.0000 %
123 12-04-2017 00:00:00 11.54667 C 20.0083 %
124 13-04-2017 00:00:00 12.27417 C 20.7667 %
125 14-04-2017 00:00:00 10.30417 C 22.3083 %
Sensor: Nr:Datum:Temp:Feuchte:
Aussen-T/F 126 15-04-2017 00:00:00 8.6675 C 21.4500 %
127 16-04-2017 00:00:00 7.34417 C 23.7417 %
128 17-04-2017 00:00:00 6.805 C 28.0667 %
129 18-04-2017 00:00:00 5.69667 C 20.6333 %
130 19-04-2017 00:00:00 4.65667 C 28.3500 %
131 20-04-2017 00:00:00 6.6825 C 23.4667 %
132 21-04-2017 00:00:00 8.16917 C 22.1500 %
133 22-04-2017 00:00:00 9.88 C 20.0000 %
134 23-04-2017 00:00:00 7.65 C 20.5333 %
135 24-04-2017 00:00:00 6.5875 C 27.3250 %
136 25-04-2017 00:00:00 7.13193 C 20.0000 %
137 26-04-2017 00:00:00 7.62583 C 20.1500 %
138 27-04-2017 00:00:00 7.74917 C 23.9083 %
139 28-04-2017 00:00:00 6.26083 C 27.3167 %
140 29-04-2017 00:00:00 9.68667 C 30.5750 %
141 30-04-2017 00:00:00 11.3975 C 20.0000 %
142 01-05-2017 00:00:00 9.75083 C 27.4250 %
143 02-05-2017 00:00:00 8.5825 C 45.3500 %
144 03-05-2017 00:00:00 10.7175 C 39.5000 %
145 04-05-2017 00:00:00 11.94833 C 30.7750 %
146 05-05-2017 00:00:00 12.685 C 23.2667 %
147 06-05-2017 00:00:00 13.30333 C 33.1667 %
148 07-05-2017 00:00:00 12.8375 C 37.3083 %
149 08-05-2017 00:00:00 9.69083 C 26.5500 %
150 09-05-2017 00:00:00 11.87667 C 24.9000 %
Sensor: Nr:Datum:Temp:Feuchte:
Aussen-T/F 151 10-05-2017 00:00:00 11.33833 C 26.9167 %
152 11-05-2017 00:00:00 14.63833 C 25.1750 %
153 12-05-2017 00:00:00 16.395 C 30.7500 %
154 13-05-2017 00:00:00 18.05917 C 28.5167 %
155 14-05-2017 00:00:00 16.575 C 24.9333 %
156 15-05-2017 00:00:00 16.65 C 33.9583 %
157 16-05-2017 00:00:00 20.58167 C 20.0000 %
158 17-05-2017 00:00:00 21.33 C 20.8417 %
159 18-05-2017 00:00:00 18.02917 C 26.7583 %
160 19-05-2017 00:00:00 13.17667 C 46.5833 %
161 20-05-2017 00:00:00 12.655 C 37.4083 %
162 21-05-2017 00:00:00 14.64917 C 29.2750 %
163 22-05-2017 00:00:00 17.3675 C 27.8667 %
164 23-05-2017 00:00:00 19.65167 C 23.7417 %
165 24-05-2017 00:00:00 17.405 C 20.4000 %
166 25-05-2017 00:00:00 20.29 C 21.8917 %
167 26-05-2017 00:00:00 19.73833 C 24.5250 %
168 27-05-2017 00:00:00 22.6075 C 24.8667 %
169 28-05-2017 00:00:00 21.81583 C 24.8250 %
170 29-05-2017 00:00:00 24.57833 C 34.4500 %
171 30-05-2017 00:00:00 22.94833 C 21.0500 %
172 31-05-2017 00:00:00 20.15917 C 21.0333 %
173 01-06-2017 00:00:00 20.24833 C 23.6500 %
174 02-06-2017 00:00:00 19.48083 C 25.5083 %
175 03-06-2017 00:00:00 19.46417 C 36.0000 %
Sensor: Nr:Datum:Temp:Feuchte:
Aussen-T/F 176 04-06-2017 00:00:00 16.96583 C 37.9333 %
177 05-06-2017 00:00:00 17.975 C 34.7083 %
178 06-06-2017 00:00:00 16.04667 C 23.7250 %
179 07-06-2017 00:00:00 14.48333 C 20.5500 %
180 08-06-2017 00:00:00 19.25 C 21.2917 %
181 09-06-2017 00:00:00 18.0925 C 23.5250 %
182 10-06-2017 00:00:00 19.44 C 25.5417 %
183 11-06-2017 00:00:00 21.575 C 23.5750 %
184 12-06-2017 00:00:00 22.1675 C 20.1333 %
185 13-06-2017 00:00:00 19.81833 C 20.2667 %
186 14-06-2017 00:00:00 20.985 C 24.1917 %
187 15-06-2017 00:00:00 22.28333 C 21.9500 %
188 16-06-2017 00:00:00 20.18667 C 20.0000 %
189 17-06-2017 00:00:00 18.07917 C 20.4667 %
190 18-06-2017 00:00:00 23.58667 C 21.1333 %
191 19-06-2017 00:00:00 24.0825 C 23.3000 %
192 20-06-2017 00:00:00 25.57083 C 21.0333 %
193 21-06-2017 00:00:00 27.36167 C 20.0000 %
194 22-06-2017 00:00:00 24.04083 C 25.6833 %
195 23-06-2017 00:00:00 23.645 C 21.6583 %
196 24-06-2017 00:00:00 21.56417 C 21.1667 %
197 25-06-2017 00:00:00 20.95 C 20.0000 %
198 26-06-2017 00:00:00 23.18333 C 20.0000 %
199 27-06-2017 00:00:00 19.20417 C 25.8000 %
200 28-06-2017 00:00:00 20.19167 C 37.8250 %
Sensor: Nr:Datum:Temp:Feuchte:
Aussen-T/F 201 29-06-2017 00:00:00 18.5125 C 27.5083 %
202 30-06-2017 00:00:00 18.34833 C 22.5167 %
203 01-07-2017 00:00:00 16.22083 C 30.4250 %
204 02-07-2017 00:00:00 16.92 C 32.0250 %
205 03-07-2017 00:00:00 18.83333 C 27.3833 %
206 04-07-2017 00:00:00 21.9375 C 21.4833 %
207 05-07-2017 00:00:00 23.425 C 23.6833 %
208 06-07-2017 00:00:00 22.78417 C 24.7917 %
209 07-07-2017 00:00:00 24.54667 C 34.9667 %
210 08-07-2017 00:00:00 24.04167 C 22.1750 %
211 09-07-2017 00:00:00 23.87667 C 21.6750 %
212 10-07-2017 00:00:00 19.995 C 36.4250 %
213 11-07-2017 00:00:00 19.97417 C 25.9167 %
214 12-07-2017 00:00:00 17.8025 C 27.7583 %
215 13-07-2017 00:00:00 17.10583 C 27.2083 %
216 14-07-2017 00:00:00 16.94333 C 24.9917 %
217 15-07-2017 00:00:00 17.56583 C 24.2833 %
218 16-07-2017 00:00:00 19.83833 C 21.7500 %
219 17-07-2017 00:00:00 22.11583 C 25.7917 %
220 18-07-2017 00:00:00 23.18917 C 26.1500 %
221 19-07-2017 00:00:00 24.29083 C 22.7083 %
222 20-07-2017 00:00:00 22.56083 C 28.0583 %
223 21-07-2017 00:00:00 21.25917 C 21.7417 %
224 22-07-2017 00:00:00 22.86083 C 31.7667 %
225 23-07-2017 00:00:00 19.16417 C 32.9917 %
Sensor: Nr:Datum:Temp:Feuchte:
Aussen-T/F 226 24-07-2017 00:00:00 15.17 C 34.9083 %
227 25-07-2017 00:00:00 14.17917 C 53.8250 %
228 26-07-2017 00:00:00 17.7925 C 34.8833 %
229 27-07-2017 00:00:00 19.165 C 34.9917 %
230 28-07-2017 00:00:00 17.4625 C 30.7500 %
231 29-07-2017 00:00:00 20.93333 C 25.8500 %
232 30-07-2017 00:00:00 23.44917 C 24.9833 %
233 31-07-2017 00:00:00 21.3325 C 25.8250 %
234 01-08-2017 00:00:00 20.18333 C 47.5000 %
235 02-08-2017 00:00:00 22.01833 C 35.3417 %
236 03-08-2017 00:00:00 21.82833 C 28.1250 %
237 04-08-2017 00:00:00 21.0775 C 24.1917 %
238 05-08-2017 00:00:00 19.94833 C 23.8417 %
239 06-08-2017 00:00:00 18.32583 C 25.1000 %
240 07-08-2017 00:00:00 17.93417 C 26.7083 %
241 08-08-2017 00:00:00 17.9375 C 27.5583 %
242 09-08-2017 00:00:00 18.1525 C 23.5583 %
243 10-08-2017 00:00:00 15.35 C 47.5833 %
244 11-08-2017 00:00:00 14.705 C 51.5167 %
245 12-08-2017 00:00:00 15.305 C 40.2750 %
246 13-08-2017 00:00:00 18.60917 C 28.7333 %
247 14-08-2017 00:00:00 18.56167 C 33.7917 %
248 15-08-2017 00:00:00 18.83833 C 38.5333 %
249 16-08-2017 00:00:00 19.97167 C 37.3917 %
250 17-08-2017 00:00:00 19.57167 C 33.3667 %
Sensor: Nr:Datum:Temp:Feuchte:
Aussen-T/F 251 18-08-2017 00:00:00 18.17417 C 43.5167 %
252 19-08-2017 00:00:00 14.47417 C 43.3667 %
253 20-08-2017 00:00:00 14.925 C 30.8417 %
254 21-08-2017 00:00:00 16.3575 C 28.8917 %
255 22-08-2017 00:00:00 16.08833 C 31.8500 %
256 23-08-2017 00:00:00 17.92583 C 30.8917 %
257 24-08-2017 00:00:00 19.9075 C 26.1917 %
258 25-08-2017 00:00:00 18.30833 C 37.3750 %
259 26-08-2017 00:00:00 20.88833 C 44.3167 %
260 27-08-2017 00:00:00 19.63083 C 34.5250 %
261 28-08-2017 00:00:00 19.4775 C 30.1667 %
262 29-08-2017 00:00:00 20.03667 C 34.9500 %
263 30-08-2017 00:00:00 20.91167 C 31.6750 %
264 31-08-2017 00:00:00 17.32857 C 27.5210 %
265 01-09-2017 00:00:00 14.1 C 34.5083 %
266 02-09-2017 00:00:00 14.51417 C 34.0667 %
267 03-09-2017 00:00:00 12.90417 C 31.6750 %
268 04-09-2017 00:00:00 13.94167 C 34.8750 %
269 05-09-2017 00:00:00 17.87 C 36.6833 %
270 06-09-2017 00:00:00 17.47083 C 25.8083 %
271 07-09-2017 00:00:00 15.90083 C 21.1083 %
272 08-09-2017 00:00:00 15.99583 C 20.6583 %
273 09-09-2017 00:00:00 14.54 C 39.9417 %
274 10-09-2017 00:00:00 13.27583 C 43.1833 %
275 11-09-2017 00:00:00 14.27083 C 26.4083 %
Sensor: Nr:Datum:Temp:Feuchte:
Aussen-T/F 276 12-09-2017 00:00:00 14.32583 C 26.1417 %
277 13-09-2017 00:00:00 13.965 C 38.8333 %
278 14-09-2017 00:00:00 11.75417 C 39.2750 %
279 15-09-2017 00:00:00 12.5175 C 33.8750 %
280 16-09-2017 00:00:00 10.11333 C 40.9500 %
281 17-09-2017 00:00:00 9.67 C 51.4833 %
282 18-09-2017 00:00:00 10.46 C 46.2417 %
283 19-09-2017 00:00:00 11.76 C 32.8500 %
284 20-09-2017 00:00:00 11.29583 C 42.5167 %
285 21-09-2017 00:00:00 10.49 C 44.7417 %
286 22-09-2017 00:00:00 11.12417 C 43.8917 %
287 23-09-2017 00:00:00 13.495 C 40.1917 %
288 24-09-2017 00:00:00 12.475 C 44.1417 %
289 25-09-2017 00:00:00 12.56583 C 44.0250 %
290 26-09-2017 00:00:00 13.27167 C 41.8333 %
291 27-09-2017 00:00:00 13.05083 C 43.9333 %
292 28-09-2017 00:00:00 14.64667 C 44.6000 %
293 29-09-2017 00:00:00 17.38667 C 38.5083 %
294 30-09-2017 00:00:00 14.205 C 48.5667 %
295 01-10-2017 00:00:00 10.23667 C 56.3000 %
296 02-10-2017 00:00:00 13.38833 C 43.6167 %
297 03-10-2017 00:00:00 12.20667 C 42.3667 %
298 04-10-2017 00:00:00 11.05583 C 31.0333 %
299 05-10-2017 00:00:00 12.92833 C 21.9667 %
300 06-10-2017 00:00:00 9.4 C 33.6250 %
Sensor: Nr:Datum:Temp:Feuchte:
Aussen-T/F 301 07-10-2017 00:00:00 9.55083 C 31.6583 %
302 08-10-2017 00:00:00 11.81833 C 41.5417 %
303 09-10-2017 00:00:00 10.9925 C 47.1583 %
304 10-10-2017 00:00:00 12.88917 C 31.8167 %
305 11-10-2017 00:00:00 13.19167 C 31.2083 %
306 12-10-2017 00:00:00 13.13667 C 36.6500 %
307 13-10-2017 00:00:00 13.9275 C 38.7583 %
308 14-10-2017 00:00:00 12.47167 C 50.0167 %
309 15-10-2017 00:00:00 11.94833 C 54.6750 %
310 16-10-2017 00:00:00 12.63333 C 51.4833 %
311 17-10-2017 00:00:00 12.20667 C 52.4250 %
312 18-10-2017 00:00:00 11.85333 C 50.4167 %
313 19-10-2017 00:00:00 11.0025 C 50.7750 %
314 20-10-2017 00:00:00 11.63697 C 37.7479 %
315 21-10-2017 00:00:00 11.28083 C 38.1917 %
316 22-10-2017 00:00:00 10.28417 C 24.4167 %
317 23-10-2017 00:00:00 10.42417 C 23.7667 %
318 24-10-2017 00:00:00 12.76333 C 33.7917 %
319 25-10-2017 00:00:00 15.1425 C 27.6500 %
320 26-10-2017 00:00:00 13.17917 C 29.2667 %
321 27-10-2017 00:00:00 10.80833 C 33.6167 %
322 28-10-2017 00:00:00 10.09833 C 24.5250 %
323 29-10-2017 00:00:00 10.1184 C 26.6160 %
324 30-10-2017 00:00:00 6.43917 C 30.2667 %
325 31-10-2017 00:00:00 7.06917 C 27.1250 %
Sensor: Nr:Datum:Temp:Feuchte:
Aussen-T/F 326 01-11-2017 00:00:00 7.99917 C 24.8000 %
327 02-11-2017 00:00:00 7.76917 C 32.9583 %
328 03-11-2017 00:00:00 6.735 C 45.5833 %
329 04-11-2017 00:00:00 7.89167 C 53.2917 %
330 05-11-2017 00:00:00 8.26167 C 46.6500 %
331 06-11-2017 00:00:00 5.14 C 33.5917 %
332 07-11-2017 00:00:00 4.24333 C 45.0833 %
333 08-11-2017 00:00:00 6.0575 C 55.0333 %
334 09-11-2017 00:00:00 7.38917 C 46.1583 %
335 10-11-2017 00:00:00 6.65917 C 26.9667 %
336 11-11-2017 00:00:00 5.63583 C 40.7000 %
337 12-11-2017 00:00:00 3.91583 C 58.4500 %
338 13-11-2017 00:00:00 4.73833 C 41.6917 %
339 14-11-2017 00:00:00 3.73417 C 47.8500 %
340 15-11-2017 00:00:00 6.5375 C 27.1083 %
341 16-11-2017 00:00:00 4.27833 C 39.8500 %
342 17-11-2017 00:00:00 5.2975 C 48.8250 %
343 18-11-2017 00:00:00 2.87083 C 39.8833 %
344 19-11-2017 00:00:00 4.78583 C 32.4167 %
345 20-11-2017 00:00:00 4.46917 C 31.8667 %
346 21-11-2017 00:00:00 8.65667 C 28.5833 %
347 22-11-2017 00:00:00 7.285 C 30.5250 %
348 23-11-2017 00:00:00 8.5175 C 46.0583 %
349 24-11-2017 00:00:00 9.68 C 41.3083 %
350 25-11-2017 00:00:00 4.5475 C 53.6583 %
Sensor: Nr:Datum:Temp:Feuchte:
Aussen-T/F 351 26-11-2017 00:00:00 2.92583 C 28.8917 %
352 27-11-2017 00:00:00 4.8625 C 21.2917 %
353 28-11-2017 00:00:00 3.22667 C 51.1000 %
354 29-11-2017 00:00:00 2.265 C 55.6667 %
355 30-11-2017 00:00:00 1.60417 C 52.1417 %
356 01-12-2017 00:00:00 -0.2175 C 65.1167 %
357 02-12-2017 00:00:00 0.44833 C 41.3833 %
358 03-12-2017 00:00:00 -0.00667 C 31.2250 %
359 04-12-2017 00:00:00 2.29 C 46.3167 %
360 05-12-2017 00:00:00 3.6025 C 38.3333 %
361 06-12-2017 00:00:00 5.19833 C 24.6583 %
362 07-12-2017 00:00:00 4.21333 C 22.9083 %
363 08-12-2017 00:00:00 2.61083 C 31.9250 %
364 09-12-2017 00:00:00 0.24417 C 20.0083 %
365 10-12-2017 00:00:00 1.39167 C 28.5667 %
366 11-12-2017 00:00:00 4.91083 C 48.9333 %
367 12-12-2017 00:00:00 2.8125 C 21.0417 %
368 13-12-2017 00:00:00 2.70083 C 32.0833 %
369 14-12-2017 00:00:00 3.58417 C 33.7083 %
370 15-12-2017 00:00:00 2.05167 C 59.1500 %
371 16-12-2017 00:00:00 2.14667 C 54.8167 %
372 17-12-2017 00:00:00 2.22583 C 28.7000 %
373 18-12-2017 00:00:00 0.71333 C 56.1333 %
374 19-12-2017 00:00:00 2.67 C 67.9667 %
375 20-12-2017 00:00:00 4.95083 C 67.4833 %
Sensor: Nr:Datum:Temp:Feuchte:
Aussen-T/F 376 21-12-2017 00:00:00 6.82667 C 61.0083 %
377 22-12-2017 00:00:00 8.10417 C 67.4917 %
378 23-12-2017 00:00:00 8.1975 C 39.8417 %
379 24-12-2017 00:00:00 8.37583 C 20.1083 %
380 25-12-2017 00:00:00 6.34167 C 20.0583 %
381 26-12-2017 00:00:00 3.55917 C 38.0083 %
382 27-12-2017 00:00:00 4.2 C 40.9333 %
383 28-12-2017 00:00:00 2.28083 C 30.6667 %
384 29-12-2017 00:00:00 1.6 C 29.8333 %
385 30-12-2017 00:00:00 6.22583 C 44.3250 %
386 31-12-2017 00:00:00 12.09667 C 23.3583 %
387 01-01-2018 00:00:00 7.035 C 28.9500 %
388 02-01-2018 00:00:00 5.395 C 28.4083 %
389 03-01-2018 00:00:00 7.40667 C 26.8250 %
390 04-01-2018 00:00:00 7.375 C 35.2167 %
391 05-01-2018 00:00:00 7.45583 C 34.5250 %
392 06-01-2018 00:00:00 5.4075 C 71.1333 %
393 07-01-2018 00:00:00 4.365 C 39.4167 %
394 08-01-2018 00:00:00 3.86417 C 21.1167 %
395 09-01-2018 00:00:00 4.01083 C 35.8167 %
396 10-01-2018 00:00:00 5.88833 C 39.9000 %
397 11-01-2018 00:00:00 6.29167 C 52.8750 %
398 12-01-2018 00:00:00 5.70083 C 50.0167 %
399 13-01-2018 00:00:00 4.70917 C 38.6750 %
400 14-01-2018 00:00:00 2.06917 C 25.5583 %
Sensor: Nr:Datum:Temp:Feuchte:
Aussen-T/F 401 15-01-2018 00:00:00 2.675 C 35.7000 %
402 16-01-2018 00:00:00 5.00167 C 27.7500 %
403 17-01-2018 00:00:00 2.35 C 27.4500 %
404 18-01-2018 00:00:00 4.8775 C 25.4667 %
405 19-01-2018 00:00:00 2.92583 C 27.3750 %
406 20-01-2018 00:00:00 2.10833 C 38.1000 %
407 21-01-2018 00:00:00 1.73917 C 43.8167 %
408 22-01-2018 00:00:00 4.38583 C 45.1083 %
409 23-01-2018 00:00:00 6.65593 C 27.4831 %
410 24-01-2018 00:00:00 10.79316 C 24.5470 %
411 25-01-2018 00:00:00 9.13917 C 43.9750 %
412 26-01-2018 00:00:00 5.89167 C 56.7333 %
413 27-01-2018 00:00:00 4.26583 C 45.6667 %
414 28-01-2018 00:00:00 6.63917 C 22.5333 %
415 29-01-2018 00:00:00 9.275 C 22.7417 %
416 30-01-2018 00:00:00 4.25333 C 35.1167 %
417 31-01-2018 00:00:00 6.62917 C 32.6500 %
418 01-02-2018 00:00:00 2.0675 C 36.1083 %
419 02-02-2018 00:00:00 2.36417 C 31.6667 %
420 03-02-2018 00:00:00 2.65042 C 30.2269 %
421 04-02-2018 00:00:00 0.38667 C 29.6333 %
422 05-02-2018 00:00:00 -0.98583 C 20.2500 %
423 06-02-2018 00:00:00 -1.55167 C 25.9583 %
424 07-02-2018 00:00:00 -0.79667 C 32.3833 %
425 08-02-2018 00:00:00 -3.34333 C 28.9667 %
Sensor: Nr:Datum:Temp:Feuchte:
Aussen-T/F 426 09-02-2018 00:00:00 -2.8975 C 36.1833 %
427 10-02-2018 00:00:00 1.41833 C 24.0167 %
428 11-02-2018 00:00:00 2.22 C 26.3667 %
429 12-02-2018 00:00:00 1.25083 C 34.8917 %
430 13-02-2018 00:00:00 -1.44 C 29.8417 %
431 14-02-2018 00:00:00 -3.14333 C 28.8667 %
432 15-02-2018 00:00:00 0.80417 C 40.6583 %
433 16-02-2018 00:00:00 0.98667 C 60.1667 %
434 17-02-2018 00:00:00 -0.55 C 48.8833 %
435 18-02-2018 00:00:00 -2.16917 C 38.4250 %
436 19-02-2018 00:00:00 0.37083 C 35.6500 %
437 20-02-2018 00:00:00 -0.54083 C 33.3417 %
438 21-02-2018 00:00:00 -0.04917 C 22.5333 %
439 22-02-2018 00:00:00 -1.265 C 21.2167 %
440 23-02-2018 00:00:00 -2.0175 C 20.0000 %
441 24-02-2018 00:00:00 -2.72667 C 20.0000 %
442 25-02-2018 00:00:00 -3.74417 C 20.0000 %
443 26-02-2018 00:00:00 -5.06167 C 20.0000 %
444 27-02-2018 00:00:00 -7.2225 C 20.3500 %
445 28-02-2018 00:00:00 -7.98333 C 20.0000 %
446 01-03-2018 00:00:00 -3.74917 C 20.0000 %
447 02-03-2018 00:00:00 -2.59083 C 20.0917 %
448 03-03-2018 00:00:00 -0.72083 C 28.3583 %
449 04-03-2018 00:00:00 3.2 C 37.8833 %
450 05-03-2018 00:00:00 5.22833 C 42.3583 %
Sensor: Nr:Datum:Temp:Feuchte:
Aussen-T/F 451 06-03-2018 00:00:00 4.25 C 40.7750 %
452 07-03-2018 00:00:00 4.89167 C 43.0333 %
453 08-03-2018 00:00:00 5.66417 C 23.5833 %
454 09-03-2018 00:00:00 4.83667 C 41.9500 %
455 10-03-2018 00:00:00 9.51333 C 45.7833 %
456 11-03-2018 00:00:00 9.60833 C 40.1667 %
457 12-03-2018 00:00:00 9.04083 C 37.0250 %
458 13-03-2018 00:00:00 6.84083 C 24.1083 %
459 14-03-2018 00:00:00 6.32917 C 26.1667 %
460 15-03-2018 00:00:00 5.73833 C 33.0750 %
461 16-03-2018 00:00:00 7.00917 C 47.9667 %
462 17-03-2018 00:00:00 -0.93917 C 20.2583 %
463 18-03-2018 00:00:00 -2.1675 C 20.0000 %
464 19-03-2018 00:00:00 -0.63417 C 20.0000 %
465 20-03-2018 00:00:00 -0.4175 C 20.0167 %
466 21-03-2018 00:00:00 0.5225 C 24.8500 %
467 22-03-2018 00:00:00 2.45417 C 30.2000 %
468 23-03-2018 00:00:00 5.83583 C 38.3250 %
469 24-03-2018 00:00:00 4.74917 C 35.3167 %
470 25-03-2018 00:00:00 4.60522 C 30.4870 %
471 26-03-2018 00:00:00 7.34167 C 20.0250 %
472 27-03-2018 00:00:00 5.52083 C 29.7083 %
473 28-03-2018 00:00:00 8.02667 C 36.4167 %
474 29-03-2018 00:00:00 6.93667 C 20.9833 %
475 30-03-2018 00:00:00 6.38833 C 34.0000 %
Sensor: Nr:Datum:Temp:Feuchte:
Aussen-T/F 476 31-03-2018 00:00:00 7.84583 C 39.4917 %
477 01-04-2018 00:00:00 7.26083 C 20.4250 %
478 02-04-2018 00:00:00 8.7875 C 27.6500 %
479 03-04-2018 00:00:00 13.26583 C 20.0000 %
480 04-04-2018 00:00:00 10.6625 C 24.3500 %
481 05-04-2018 00:00:00 7.485 C 30.3417 %
482 06-04-2018 00:00:00 6.66833 C 35.5583 %
483 07-04-2018 00:00:00 12.16083 C 22.7583 %
484 08-04-2018 00:00:00 14.75333 C 22.3333 %
485 09-04-2018 00:00:00 13.84583 C 24.6917 %
486 10-04-2018 00:00:00 12.68 C 28.0833 %
487 11-04-2018 00:00:00 11.99333 C 34.9833 %
488 12-04-2018 00:00:00 13.34833 C 37.0500 %
489 13-04-2018 00:00:00 9.9075 C 32.0833 %
490 14-04-2018 00:00:00 12.74 C 36.2167 %
491 15-04-2018 00:00:00 14.41667 C 27.2750 %
492 16-04-2018 00:00:00 13.76083 C 31.1917 %
493 17-04-2018 00:00:00 14.02167 C 29.2083 %
494 18-04-2018 00:00:00 15.74583 C 26.0333 %
495 19-04-2018 00:00:00 17.22083 C 26.6000 %
496 20-04-2018 00:00:00 17.00083 C 24.1667 %
497 21-04-2018 00:00:00 18.43667 C 23.5750 %
498 22-04-2018 00:00:00 18.55417 C 25.1083 %
499 23-04-2018 00:00:00 18.66417 C 20.2833 %
500 24-04-2018 00:00:00 14.27333 C 24.2167 %
Sensor: Nr:Datum:Temp:Feuchte:
Aussen-T/F 501 25-04-2018 00:00:00 13.4125 C 21.6750 %
502 26-04-2018 00:00:00 11.21 C 20.0000 %
503 27-04-2018 00:00:00 12.55083 C 22.6167 %
504 28-04-2018 00:00:00 12.6075 C 23.1000 %
505 29-04-2018 00:00:00 14.48167 C 29.9583 %
506 30-04-2018 00:00:00 13.82167 C 24.6083 %
507 01-05-2018 00:00:00 9.82667 C 20.0500 %
508 02-05-2018 00:00:00 9.81083 C 27.0250 %
509 03-05-2018 00:00:00 12.9575 C 23.3250 %
510 04-05-2018 00:00:00 13.49833 C 21.9583 %
511 05-05-2018 00:00:00 15.83583 C 20.0667 %
512 06-05-2018 00:00:00 17.25 C 20.1167 %
513 07-05-2018 00:00:00 17.88167 C 21.1000 %
514 08-05-2018 00:00:00 18.43583 C 22.6667 %
515 09-05-2018 00:00:00 17.19333 C 22.2583 %
516 10-05-2018 00:00:00 14.13917 C 25.9500 %
517 11-05-2018 00:00:00 14.92083 C 27.9167 %
518 12-05-2018 00:00:00 17.0825 C 28.2750 %
519 13-05-2018 00:00:00 14.3425 C 37.0500 %
520 14-05-2018 00:00:00 17.16333 C 35.6750 %
521 15-05-2018 00:00:00 16.0375 C 27.9417 %
522 16-05-2018 00:00:00 15.7475 C 27.4000 %
523 17-05-2018 00:00:00 14.55667 C 23.4833 %
524 18-05-2018 00:00:00 13.17083 C 21.1083 %
525 19-05-2018 00:00:00 13.845 C 23.5250 %
Sensor: Nr:Datum:Temp:Feuchte:
Aussen-T/F 526 20-05-2018 00:00:00 14.06917 C 31.8333 %
527 21-05-2018 00:00:00 17.55333 C 27.4333 %
528 22-05-2018 00:00:00 17.09833 C 29.9833 %
529 23-05-2018 00:00:00 17.23083 C 36.1833 %
530 24-05-2018 00:00:00 17.22083 C 27.4917 %
531 25-05-2018 00:00:00 20.19417 C 26.8083 %
532 26-05-2018 00:00:00 21.1325 C 26.3667 %
533 27-05-2018 00:00:00 20.4375 C 27.6917 %
534 28-05-2018 00:00:00 21.70917 C 33.5833 %
535 29-05-2018 00:00:00 20.88333 C 27.1500 %
536 30-05-2018 00:00:00 21.6725 C 28.2333 %
537 31-05-2018 00:00:00 23.08167 C 20.2750 %
538 01-06-2018 00:00:00 19.3725 C 29.3667 %
539 02-06-2018 00:00:00 19.64917 C 23.6750 %
540 03-06-2018 00:00:00 20.04167 C 24.8250 %
541 04-06-2018 00:00:00 21.5125 C 24.5417 %
542 05-06-2018 00:00:00 21.2475 C 22.2500 %
543 06-06-2018 00:00:00 21.6775 C 24.0000 %
544 07-06-2018 00:00:00 21.58667 C 22.6167 %
545 08-06-2018 00:00:00 21.40167 C 24.3000 %
546 09-06-2018 00:00:00 22.3959 C 23.5984 %
547 10-06-2018 00:00:00 21.64333 C 33.3000 %
548 11-06-2018 00:00:00 19.07083 C 41.7083 %
549 12-06-2018 00:00:00 16.44167 C 37.5250 %
550 13-06-2018 00:00:00 15.1 C 22.7000 %
Sensor: Nr:Datum:Temp:Feuchte:
Aussen-T/F 551 14-06-2018 00:00:00 15.48083 C 30.2917 %
552 15-06-2018 00:00:00 17.9025 C 35.7250 %
553 16-06-2018 00:00:00 20.2775 C 26.1583 %
554 17-06-2018 00:00:00 18.42583 C 22.8083 %
555 18-06-2018 00:00:00 18.235 C 21.9750 %
556 19-06-2018 00:00:00 19.13333 C 25.5583 %
557 20-06-2018 00:00:00 23.4825 C 24.4667 %
558 21-06-2018 00:00:00 18.58 C 22.6500 %
559 22-06-2018 00:00:00 14.12167 C 20.0000 %
560 23-06-2018 00:00:00 14.19167 C 21.2750 %
561 24-06-2018 00:00:00 16.46667 C 22.7833 %
562 25-06-2018 00:00:00 17.57167 C 21.5583 %
563 26-06-2018 00:00:00 18.34083 C 24.8583 %
564 27-06-2018 00:00:00 19.81083 C 24.3333 %
565 28-06-2018 00:00:00 21.28417 C 20.6000 %
566 29-06-2018 00:00:00 24.82417 C 20.0000 %
567 30-06-2018 00:00:00 22.8375 C 20.4583 %
568 01-07-2018 00:00:00 21.52333 C 20.0000 %
569 02-07-2018 00:00:00 21.06583 C 20.0000 %
570 03-07-2018 00:00:00 21.34917 C 20.0000 %
571 04-07-2018 00:00:00 19.00917 C 27.2667 %
572 05-07-2018 00:00:00 19.70667 C 33.6083 %
573 06-07-2018 00:00:00 20.57333 C 25.0417 %
574 07-07-2018 00:00:00 21.3521 C 23.5630 %
575 08-07-2018 00:00:00 20.38417 C 21.0583 %
Sensor: Nr:Datum:Temp:Feuchte:
Aussen-T/F 576 09-07-2018 00:00:00 20.71083 C 21.4167 %
577 10-07-2018 00:00:00 17.5975 C 22.4000 %
578 11-07-2018 00:00:00 16.2875 C 33.6667 %
579 12-07-2018 00:00:00 19.71583 C 32.5000 %
580 13-07-2018 00:00:00 20.13 C 24.9667 %
581 14-07-2018 00:00:00 22.01333 C 24.7500 %
582 15-07-2018 00:00:00 22.10833 C 22.6333 %
583 16-07-2018 00:00:00 23.10667 C 21.7167 %
584 17-07-2018 00:00:00 21.59583 C 20.3583 %
585 18-07-2018 00:00:00 20.9475 C 22.7500 %
586 19-07-2018 00:00:00 21.47667 C 21.5833 %
587 20-07-2018 00:00:00 21.81583 C 20.1917 %
588 21-07-2018 00:00:00 20.94083 C 22.6750 %
589 22-07-2018 00:00:00 22.115 C 25.1500 %
590 23-07-2018 00:00:00 22.98917 C 21.2167 %
591 24-07-2018 00:00:00 24.11417 C 22.5833 %
592 25-07-2018 00:00:00 25.90417 C 20.1583 %
593 26-07-2018 00:00:00 27.54333 C 20.0167 %
594 27-07-2018 00:00:00 26.46167 C 20.0000 %
595 28-07-2018 00:00:00 22.24 C 22.3250 %
596 29-07-2018 00:00:00 23.87667 C 23.3500 %
597 30-07-2018 00:00:00 24.435 C 20.3250 %
598 31-07-2018 00:00:00 25.8025 C 21.1500 %
599 01-08-2018 00:00:00 20.68583 C 32.5500 %
600 02-08-2018 00:00:00 24.12 C 31.7333 %
Sensor: Nr:Datum:Temp:Feuchte:
Aussen-T/F 601 03-08-2018 00:00:00 26.79583 C 20.9083 %
602 04-08-2018 00:00:00 26.84 C 20.0667 %
603 05-08-2018 00:00:00 25.5025 C 20.1667 %
604 06-08-2018 00:00:00 24.4075 C 20.1500 %
605 07-08-2018 00:00:00 26.99333 C 20.0000 %
606 08-08-2018 00:00:00 25.83667 C 20.0000 %
607 09-08-2018 00:00:00 20.8725 C 26.6583 %
608 10-08-2018 00:00:00 18.73667 C 20.8917 %
609 11-08-2018 00:00:00 18.76667 C 20.0000 %
610 12-08-2018 00:00:00 18.38667 C 21.9833 %
611 13-08-2018 00:00:00 17.82083 C 28.9750 %
612 14-08-2018 00:00:00 18.755 C 28.1167 %
613 15-08-2018 00:00:00 19.59583 C 29.0833 %
614 16-08-2018 00:00:00 20.84333 C 28.0000 %
615 17-08-2018 00:00:00 20.11583 C 22.3500 %
616 18-08-2018 00:00:00 19.2675 C 26.3417 %
617 19-08-2018 00:00:00 20.68667 C 23.5250 %
618 20-08-2018 00:00:00 21.20333 C 20.6833 %
619 21-08-2018 00:00:00 22.2425 C 24.3417 %
620 22-08-2018 00:00:00 23.51417 C 22.7667 %
621 23-08-2018 00:00:00 23.22 C 23.0167 %
622 24-08-2018 00:00:00 19.31833 C 20.6583 %
623 25-08-2018 00:00:00 14.65417 C 21.6083 %
624 26-08-2018 00:00:00 13.95083 C 28.0000 %
625 27-08-2018 00:00:00 18.20917 C 20.3667 %
Sensor: Nr:Datum:Temp:Feuchte:
Aussen-T/F 626 28-08-2018 00:00:00 18.39833 C 20.7167 %
627 29-08-2018 00:00:00 17.005 C 30.8917 %
628 30-08-2018 00:00:00 17.4125 C 25.9167 %
629 31-08-2018 00:00:00 15.33167 C 23.6000 %
630 01-09-2018 00:00:00 14.445 C 26.6667 %
631 02-09-2018 00:00:00 14.24833 C 24.8000 %
632 03-09-2018 00:00:00 18.13417 C 22.9917 %
633 04-09-2018 00:00:00 20.0425 C 27.0167 %
634 05-09-2018 00:00:00 20.69 C 25.3083 %
635 06-09-2018 00:00:00 18.0925 C 32.7583 %
636 07-09-2018 00:00:00 15.6675 C 33.8500 %
637 08-09-2018 00:00:00 13.5425 C 30.5333 %
638 09-09-2018 00:00:00 16.80833 C 23.2500 %
639 10-09-2018 00:00:00 17.5025 C 23.9000 %
640 11-09-2018 00:00:00 18.86667 C 26.0333 %
641 12-09-2018 00:00:00 19.03167 C 24.0083 %
642 13-09-2018 00:00:00 16.5775 C 25.7417 %
643 14-09-2018 00:00:00 17.1375 C 25.2000 %
644 15-09-2018 00:00:00 15.17 C 21.0833 %
645 16-09-2018 00:00:00 14.51 C 27.7833 %
646 17-09-2018 00:00:00 16.24583 C 25.3583 %
647 18-09-2018 00:00:00 18.72833 C 26.0000 %
648 19-09-2018 00:00:00 20.545 C 25.3250 %
649 20-09-2018 00:00:00 19.08833 C 26.8417 %
650 21-09-2018 00:00:00 15.91167 C 24.5750 %
Sensor: Nr:Datum:Temp:Feuchte:
Aussen-T/F 651 22-09-2018 00:00:00 12.6825 C 25.6333 %
652 23-09-2018 00:00:00 12.18083 C 47.2250 %
653 24-09-2018 00:00:00 9.66 C 36.3583 %
654 25-09-2018 00:00:00 8.06417 C 42.7083 %
655 26-09-2018 00:00:00 8.5625 C 35.2583 %
656 27-09-2018 00:00:00 10.55833 C 35.5667 %
657 28-09-2018 00:00:00 9.67833 C 43.7167 %
658 29-09-2018 00:00:00 7.75083 C 41.1250 %
659 30-09-2018 00:00:00 7.2475 C 35.9250 %
660 01-10-2018 00:00:00 9.41583 C 29.7833 %
661 02-10-2018 00:00:00 8.87917 C 33.7167 %
662 03-10-2018 00:00:00 11.93917 C 34.0750 %
663 04-10-2018 00:00:00 9.37167 C 38.3000 %
664 05-10-2018 00:00:00 10.05917 C 42.4917 %
665 06-10-2018 00:00:00 12.08583 C 44.5417 %
666 07-10-2018 00:00:00 12.625 C 37.2750 %
667 08-10-2018 00:00:00 9.9775 C 39.4833 %
668 09-10-2018 00:00:00 11.14583 C 44.1500 %
669 10-10-2018 00:00:00 12.71667 C 45.8500 %
670 11-10-2018 00:00:00 13.6775 C 40.8667 %
671 12-10-2018 00:00:00 15.05417 C 38.8667 %
672 13-10-2018 00:00:00 14.68833 C 38.8250 %
673 14-10-2018 00:00:00 13.92083 C 36.1000 %
674 15-10-2018 00:00:00 12.87417 C 37.7167 %
675 16-10-2018 00:00:00 12.0325 C 38.6083 %
Sensor: Nr:Datum:Temp:Feuchte:
Aussen-T/F 676 17-10-2018 00:00:00 12.01333 C 41.5083 %
677 18-10-2018 00:00:00 13.73917 C 38.0333 %
678 19-10-2018 00:00:00 11.66417 C 37.7167 %
679 20-10-2018 00:00:00 10.57167 C 36.9583 %
680 21-10-2018 00:00:00 6.7725 C 44.7500 %
681 22-10-2018 00:00:00 7.16833 C 43.7083 %
682 23-10-2018 00:00:00 8.68 C 39.8083 %
683 24-10-2018 00:00:00 13.58167 C 33.8333 %
684 25-10-2018 00:00:00 12.74667 C 31.1083 %
685 26-10-2018 00:00:00 9.95417 C 28.9917 %
686 27-10-2018 00:00:00 5.7925 C 48.4000 %
687 28-10-2018 00:00:00 5.2 C 33.7840 %
688 29-10-2018 00:00:00 5.97083 C 33.6667 %
689 30-10-2018 00:00:00 5.80583 C 46.3667 %
690 31-10-2018 00:00:00 6.87167 C 39.3333 %
691 01-11-2018 00:00:00 5.49083 C 58.1333 %
692 02-11-2018 00:00:00 8.22333 C 53.4750 %
693 03-11-2018 00:00:00 3.10583 C 60.6667 %
694 04-11-2018 00:00:00 6.64167 C 47.4000 %
695 05-11-2018 00:00:00 9.7725 C 45.3417 %
696 06-11-2018 00:00:00 7.78167 C 57.6917 %
697 07-11-2018 00:00:00 8.4 C 54.3917 %
698 08-11-2018 00:00:00 9.7 C 41.1583 %
699 09-11-2018 00:00:00 8.83167 C 49.0500 %
700 10-11-2018 00:00:00 11.32 C 42.0250 %
Sensor: Nr:Datum:Temp:Feuchte:
Aussen-T/F 701 11-11-2018 00:00:00 11.46583 C 47.7500 %
702 12-11-2018 00:00:00 13.07917 C 44.0417 %
703 13-11-2018 00:00:00 9.75583 C 50.0167 %
704 14-11-2018 00:00:00 5.56917 C 61.4000 %
705 15-11-2018 00:00:00 6.72833 C 38.5000 %
706 16-11-2018 00:00:00 5.12667 C 41.4000 %
707 17-11-2018 00:00:00 1.785 C 48.8667 %
708 18-11-2018 00:00:00 0.80333 C 30.7417 %
709 19-11-2018 00:00:00 2.95833 C 26.3167 %
710 20-11-2018 00:00:00 2.95167 C 25.6167 %
711 21-11-2018 00:00:00 1.93 C 37.9750 %
712 22-11-2018 00:00:00 2.22833 C 39.2750 %
713 23-11-2018 00:00:00 -0.8425 C 54.2583 %
714 24-11-2018 00:00:00 4.05833 C 58.0917 %
715 25-11-2018 00:00:00 5.29 C 56.7917 %
716 26-11-2018 00:00:00 6.09333 C 35.8583 %
717 27-11-2018 00:00:00 3.6075 C 30.9583 %
718 28-11-2018 00:00:00 2.97583 C 45.6917 %
719 29-11-2018 00:00:00 4.98333 C 47.6917 %
720 30-11-2018 00:00:00 6.67167 C 48.6583 %
721 01-12-2018 00:00:00 6.67417 C 47.9750 %
722 02-12-2018 00:00:00 10.59167 C 45.4750 %
723 03-12-2018 00:00:00 11.02333 C 51.1333 %
724 04-12-2018 00:00:00 5.62 C 45.3833 %
725 05-12-2018 00:00:00 3.15546 C 56.8487 %
Sensor: Nr:Datum:Temp:Feuchte:
Aussen-T/F 726 06-12-2018 00:00:00 9.21333 C 47.7750 %
727 07-12-2018 00:00:00 10.71583 C 33.9000 %
728 08-12-2018 00:00:00 7.28083 C 37.2333 %
729 09-12-2018 00:00:00 7.285 C 37.6917 %
730 10-12-2018 00:00:00 3.9825 C 44.3833 %
731 11-12-2018 00:00:00 2.87417 C 51.3500 %
732 12-12-2018 00:00:00 2.0375 C 58.1583 %
733 13-12-2018 00:00:00 0.49 C 37.0417 %
734 14-12-2018 00:00:00 0.48 C 20.9833 %
735 15-12-2018 00:00:00 -0.09083 C 24.2083 %
736 16-12-2018 00:00:00 0.045 C 43.8833 %
737 17-12-2018 00:00:00 3.4775 C 51.8333 %
738 18-12-2018 00:00:00 4.1675 C 41.5083 %
739 19-12-2018 00:00:00 5.75 C 37.3000 %
740 20-12-2018 00:00:00 6.87083 C 39.0583 %
741 21-12-2018 00:00:00 10.1725 C 34.4750 %
742 22-12-2018 00:00:00 9.26167 C 35.0083 %
743 23-12-2018 00:00:00 7.89333 C 46.8500 %
744 24-12-2018 00:00:00 4.10333 C 44.5000 %
745 25-12-2018 00:00:00 1.0625 C 49.8500 %
746 26-12-2018 00:00:00 -1.61083 C 52.7667 %
747 27-12-2018 00:00:00 -0.68583 C 57.2917 %
748 28-12-2018 00:00:00 -0.61667 C 51.7667 %
749 29-12-2018 00:00:00 2.0175 C 45.4833 %
750 30-12-2018 00:00:00 6.73917 C 37.6417 %
Sensor: Nr:Datum:Temp:Feuchte:
Aussen-T/F 751 31-12-2018 00:00:00 6.84917 C 56.5417 %
752 01-01-2019 00:00:00 6.345 C 45.5833 %
753 02-01-2019 00:00:00 2.72417 C 34.2083 %
754 03-01-2019 00:00:00 1.28167 C 47.5833 %
755 04-01-2019 00:00:00 2.41333 C 45.7833 %
756 05-01-2019 00:00:00 5.14417 C 47.4583 %
757 06-01-2019 00:00:00 5.0725 C 44.3083 %
758 07-01-2019 00:00:00 4.8875 C 41.5500 %
759 08-01-2019 00:00:00 5.74917 C 36.7000 %
760 09-01-2019 00:00:00 3.05083 C 34.6917 %
761 10-01-2019 00:00:00 1.36 C 32.5417 %
762 11-01-2019 00:00:00 2.05417 C 54.0417 %
763 12-01-2019 00:00:00 5.01833 C 46.3583 %
764 13-01-2019 00:00:00 6.9225 C 47.7417 %
765 14-01-2019 00:00:00 4.06833 C 43.5667 %
766 15-01-2019 00:00:00 4.06833 C 40.0333 %
767 16-01-2019 00:00:00 4.52583 C 35.3417 %
768 17-01-2019 00:00:00 4.27167 C 37.9583 %
769 18-01-2019 00:00:00 -0.2025 C 49.3250 %
770 19-01-2019 00:00:00 -3.87667 C 48.1333 %
771 20-01-2019 00:00:00 -6.33 C 47.2250 %
772 21-01-2019 00:00:00 -7.505 C 46.8917 %
773 22-01-2019 00:00:00 -5.97917 C 44.1750 %
774 23-01-2019 00:00:00 -2.435 C 39.5667 %
775 24-01-2019 00:00:00 -2.72417 C 26.7667 %
Sensor: Nr:Datum:Temp:Feuchte:
Aussen-T/F 776 25-01-2019 00:00:00 -0.50917 C 39.3333 %
777 26-01-2019 00:00:00 3.62167 C 45.9417 %
778 27-01-2019 00:00:00 4.94833 C 43.1917 %
779 28-01-2019 00:00:00 2.2025 C 45.2417 %
780 29-01-2019 00:00:00 0.865 C 44.1667 %
781 30-01-2019 00:00:00 -0.46833 C 49.8250 %
782 31-01-2019 00:00:00 -1.03333 C 52.2750 %
783 01-02-2019 00:00:00 0.72167 C 56.8333 %
784 02-02-2019 00:00:00 1.59587 C 62.5950 %
785 03-02-2019 00:00:00 1.86583 C 40.0750 %
786 04-02-2019 00:00:00 0.99417 C 40.5833 %
787 05-02-2019 00:00:00 3.66167 C 30.5917 %
788 06-02-2019 00:00:00 0.09417 C 46.8417 %
789 07-02-2019 00:00:00 4.26083 C 38.9917 %
790 08-02-2019 00:00:00 6.77417 C 31.6250 %
791 09-02-2019 00:00:00 8.02083 C 28.8667 %
792 10-02-2019 00:00:00 7.15083 C 39.6167 %
793 11-02-2019 00:00:00 4.03667 C 38.3917 %
794 12-02-2019 00:00:00 3.01917 C 38.2083 %
795 13-02-2019 00:00:00 0.96333 C 46.8167 %
796 14-02-2019 00:00:00 -0.46667 C 51.0250 %
797 15-02-2019 00:00:00 0.9925 C 45.0667 %
798 16-02-2019 00:00:00 1.9325 C 47.3750 %
799 17-02-2019 00:00:00 2.17333 C 49.1333 %
800 18-02-2019 00:00:00 2.31167 C 43.0500 %
Sensor: Nr:Datum:Temp:Feuchte:
Aussen-T/F 801 19-02-2019 00:00:00 4.89 C 40.9750 %
802 20-02-2019 00:00:00 3.7725 C 45.5000 %
803 21-02-2019 00:00:00 5.655 C 46.3667 %
804 22-02-2019 00:00:00 9.27167 C 39.5167 %
805 23-02-2019 00:00:00 4.58167 C 33.2583 %
806 24-02-2019 00:00:00 2.29833 C 32.9417 %
807 25-02-2019 00:00:00 3.65667 C 31.8250 %
808 26-02-2019 00:00:00 4.75583 C 37.6333 %
809 27-02-2019 00:00:00 5.17417 C 38.9250 %
810 28-02-2019 00:00:00 8.185 C 29.8833 %
811 01-03-2019 00:00:00 7.515 C 43.8250 %
812 02-03-2019 00:00:00 8.29333 C 34.1417 %
813 03-03-2019 00:00:00 10.72417 C 28.1417 %
814 04-03-2019 00:00:00 9.1575 C 27.8167 %
815 05-03-2019 00:00:00 6.32167 C 30.8917 %
816 06-03-2019 00:00:00 9.5125 C 32.3667 %
817 07-03-2019 00:00:00 9.61917 C 28.3833 %
818 08-03-2019 00:00:00 7.73167 C 28.8250 %
819 09-03-2019 00:00:00 10.01667 C 26.3333 %
820 10-03-2019 00:00:00 9.11083 C 30.1417 %
821 11-03-2019 00:00:00 4.19667 C 30.2417 %
822 12-03-2019 00:00:00 6.18083 C 27.8583 %
823 13-03-2019 00:00:00 5.6775 C 31.5250 %
824 14-03-2019 00:00:00 6.3325 C 38.0083 %
825 15-03-2019 00:00:00 9.61417 C 37.6917 %
Sensor: Nr:Datum:Temp:Feuchte:
Aussen-T/F 826 16-03-2019 00:00:00 9.76833 C 35.9667 %
827 17-03-2019 00:00:00 8.19083 C 26.8333 %
828 18-03-2019 00:00:00 4.3225 C 36.6583 %
829 19-03-2019 00:00:00 3.115 C 40.3583 %
830 20-03-2019 00:00:00 4.81417 C 37.4250 %
831 21-03-2019 00:00:00 6.76333 C 35.7167 %
832 22-03-2019 00:00:00 8.43083 C 34.0750 %
833 23-03-2019 00:00:00 5.40167 C 40.0083 %
834 24-03-2019 00:00:00 5.90583 C 38.2167 %
835 25-03-2019 00:00:00 4.41583 C 37.7583 %
836 26-03-2019 00:00:00 6.33417 C 32.9583 %
837 27-03-2019 00:00:00 6.36583 C 35.3083 %
838 28-03-2019 00:00:00 6.955 C 36.2417 %
839 29-03-2019 00:00:00 8.44167 C 38.7750 %
840 30-03-2019 00:00:00 10.07583 C 34.1833 %
841 31-03-2019 00:00:00 9.90957 C 33.8174 %
842 01-04-2019 00:00:00 8.9475 C 32.5750 %
843 02-04-2019 00:00:00 10.5425 C 29.3083 %
844 03-04-2019 00:00:00 7.865 C 38.6750 %
845 04-04-2019 00:00:00 5.56833 C 48.7000 %
846 05-04-2019 00:00:00 5.95417 C 48.0167 %
847 06-04-2019 00:00:00 9.88333 C 42.1917 %
848 07-04-2019 00:00:00 11.50833 C 36.8000 %
849 08-04-2019 00:00:00 12.34417 C 33.9167 %
850 09-04-2019 00:00:00 12.00333 C 40.7333 %
Sensor: Nr:Datum:Temp:Feuchte:
Aussen-T/F 851 10-04-2019 00:00:00 10.585 C 23.8417 %
852 11-04-2019 00:00:00 6.52917 C 25.0583 %
853 12-04-2019 00:00:00 4.68167 C 20.0000 %
854 13-04-2019 00:00:00 3.585 C 24.4167 %
855 14-04-2019 00:00:00 5.23833 C 34.7917 %
856 15-04-2019 00:00:00 10.29167 C 25.8000 %
857 16-04-2019 00:00:00 10.91333 C 23.2000 %
858 17-04-2019 00:00:00 12.4 C 35.6083 %
859 18-04-2019 00:00:00 13.7675 C 28.5500 %
860 19-04-2019 00:00:00 14.94917 C 24.5083 %
861 20-04-2019 00:00:00 14.60167 C 27.5833 %
862 21-04-2019 00:00:00 15.24333 C 24.6417 %
863 22-04-2019 00:00:00 14.7825 C 27.5667 %
864 23-04-2019 00:00:00 15.12667 C 20.1083 %
865 24-04-2019 00:00:00 15.10083 C 30.7083 %
866 25-04-2019 00:00:00 13.2425 C 38.0667 %
867 26-04-2019 00:00:00 11.8 C 32.0000 %
868 27-04-2019 00:00:00 9.01583 C 40.3667 %
869 28-04-2019 00:00:00 8.43333 C 30.9750 %
870 29-04-2019 00:00:00 8.62417 C 38.4083 %
871 30-04-2019 00:00:00 13.94583 C 26.0833 %
872 01-05-2019 00:00:00 13.03833 C 29.5000 %
873 02-05-2019 00:00:00 12.08333 C 31.3667 %
874 03-05-2019 00:00:00 11.20833 C 25.1500 %
875 04-05-2019 00:00:00 6.17583 C 33.4500 %
Sensor: Nr:Datum:Temp:Feuchte:
Aussen-T/F 876 05-05-2019 00:00:00 6.66333 C 32.0417 %
877 06-05-2019 00:00:00 7.6075 C 30.6583 %
878 07-05-2019 00:00:00 9.645 C 28.6167 %
879 08-05-2019 00:00:00 9.105 C 38.9750 %
880 09-05-2019 00:00:00 11.085 C 36.9583 %
881 10-05-2019 00:00:00 12.44538 C 33.3866 %
882 11-05-2019 00:00:00 9.52833 C 47.9417 %
883 12-05-2019 00:00:00 9.4 C 31.3083 %
884 13-05-2019 00:00:00 9.985 C 30.9083 %
885 14-05-2019 00:00:00 9.66333 C 26.4333 %
886 15-05-2019 00:00:00 10.57083 C 24.3500 %
887 16-05-2019 00:00:00 10.61167 C 23.0917 %
888 17-05-2019 00:00:00 11.4775 C 39.7250 %
889 18-05-2019 00:00:00 14.67167 C 39.3500 %
890 19-05-2019 00:00:00 15.91083 C 38.3750 %
891 20-05-2019 00:00:00 13.655 C 37.8667 %
892 21-05-2019 00:00:00 11.88167 C 45.6167 %
893 22-05-2019 00:00:00 13.2875 C 33.7833 %
894 23-05-2019 00:00:00 15.22667 C 33.1417 %
895 24-05-2019 00:00:00 17.24 C 28.7500 %
896 25-05-2019 00:00:00 15.89917 C 22.8167 %
897 26-05-2019 00:00:00 16.26667 C 29.2667 %
898 27-05-2019 00:00:00 14.66667 C 40.5417 %
899 28-05-2019 00:00:00 14.29917 C 38.6250 %
900 29-05-2019 00:00:00 15.28667 C 25.9000 %
Sensor: Nr:Datum:Temp:Feuchte:
Aussen-T/F 901 30-05-2019 00:00:00 15.82833 C 28.8250 %
902 31-05-2019 00:00:00 19.45583 C 30.4167 %
903 01-06-2019 00:00:00 20.21917 C 30.3583 %
904 02-06-2019 00:00:00 22.16417 C 30.0500 %
905 03-06-2019 00:00:00 21.1475 C 27.1667 %
906 04-06-2019 00:00:00 21.80333 C 28.3333 %
907 05-06-2019 00:00:00 23.57917 C 22.7833 %
908 06-06-2019 00:00:00 16.14167 C 28.3667 %
909 07-06-2019 00:00:00 16.10083 C 29.5250 %
910 08-06-2019 00:00:00 16.40917 C 20.2667 %
911 09-06-2019 00:00:00 16.72333 C 27.7667 %
912 10-06-2019 00:00:00 19.705 C 23.4750 %
913 11-06-2019 00:00:00 17.38 C 32.4667 %
914 12-06-2019 00:00:00 16.405 C 33.2917 %
915 13-06-2019 00:00:00 16.27917 C 34.4333 %
916 14-06-2019 00:00:00 18.17 C 35.6583 %
917 15-06-2019 00:00:00 19.72583 C 33.0250 %
918 16-06-2019 00:00:00 19.94417 C 24.9167 %
919 17-06-2019 00:00:00 19.5125 C 29.1250 %
920 18-06-2019 00:00:00 22.02333 C 27.1333 %
921 19-06-2019 00:00:00 22.62583 C 27.6917 %
922 20-06-2019 00:00:00 20 C 28.0167 %
923 21-06-2019 00:00:00 19.3425 C 27.3333 %
924 22-06-2019 00:00:00 19.82667 C 26.6167 %
925 23-06-2019 00:00:00 22.3125 C 27.3750 %
Sensor: Nr:Datum:Temp:Feuchte:
Aussen-T/F 926 24-06-2019 00:00:00 24.96167 C 26.2167 %
927 25-06-2019 00:00:00 26.83333 C 24.5583 %
928 26-06-2019 00:00:00 27.635 C 23.0833 %
929 27-06-2019 00:00:00 25.18917 C 20.6083 %
930 28-06-2019 00:00:00 22.44833 C 23.4333 %
931 29-06-2019 00:00:00 24.38417 C 22.1750 %
932 30-06-2019 00:00:00 26.0575 C 22.2333 %
933 01-07-2019 00:00:00 23.3825 C 20.0000 %
934 02-07-2019 00:00:00 19.63333 C 21.8667 %
935 03-07-2019 00:00:00 18.14583 C 22.9833 %
936 04-07-2019 00:00:00 18.95917 C 21.7583 %
937 05-07-2019 00:00:00 21.28 C 20.0000 %
938 06-07-2019 00:00:00 21.86 C 21.2917 %
939 07-07-2019 00:00:00 17.9975 C 24.5833 %
940 08-07-2019 00:00:00 14.77583 C 24.3917 %
941 09-07-2019 00:00:00 15.65583 C 24.6667 %
942 10-07-2019 00:00:00 17.64083 C 24.2083 %
943 11-07-2019 00:00:00 17.65083 C 31.2583 %
944 12-07-2019 00:00:00 17.16583 C 43.6333 %
945 13-07-2019 00:00:00 17.9575 C 34.1250 %
946 14-07-2019 00:00:00 17.12917 C 26.6667 %
947 15-07-2019 00:00:00 16.56667 C 21.0917 %
948 16-07-2019 00:00:00 16.26 C 28.0333 %
949 17-07-2019 00:00:00 17.56833 C 29.2083 %
950 18-07-2019 00:00:00 19.38333 C 28.1917 %
Sensor: Nr:Datum:Temp:Feuchte:
Aussen-T/F 951 19-07-2019 00:00:00 20.12667 C 31.9750 %
952 20-07-2019 00:00:00 21.81667 C 30.3083 %
953 21-07-2019 00:00:00 22.37333 C 25.8833 %
954 22-07-2019 00:00:00 22.7225 C 26.2833 %
955 23-07-2019 00:00:00 25.34083 C 25.5333 %
956 24-07-2019 00:00:00 27.1975 C 24.2750 %
957 25-07-2019 00:00:00 28.90167 C 21.7333 %
958 26-07-2019 00:00:00 27.54417 C 21.2500 %
959 27-07-2019 00:00:00 23.4375 C 26.6833 %
960 28-07-2019 00:00:00 19.93083 C 38.1333 %
961 29-07-2019 00:00:00 21.45583 C 29.3333 %
962 30-07-2019 00:00:00 22.35833 C 26.7167 %
963 31-07-2019 00:00:00 21.48417 C 20.5333 %
964 01-08-2019 00:00:00 19.83417 C 22.9750 %
965 02-08-2019 00:00:00 20.8775 C 22.8500 %
966 03-08-2019 00:00:00 20.77167 C 24.6333 %
967 04-08-2019 00:00:00 21.00667 C 28.3000 %
968 05-08-2019 00:00:00 22.56833 C 24.9167 %
969 06-08-2019 00:00:00 20.0075 C 30.3333 %
970 07-08-2019 00:00:00 19.10167 C 41.3833 %
971 08-08-2019 00:00:00 20.55667 C 30.6417 %
972 09-08-2019 00:00:00 19.73833 C 39.4583 %
973 10-08-2019 00:00:00 20.72917 C 37.6833 %
974 11-08-2019 00:00:00 17.03333 C 35.9000 %
975 12-08-2019 00:00:00 16.51583 C 38.9833 %
Sensor: Nr:Datum:Temp:Feuchte:
Aussen-T/F 976 13-08-2019 00:00:00 16.10833 C 35.2833 %
977 14-08-2019 00:00:00 16.6875 C 34.0417 %
978 15-08-2019 00:00:00 17.20583 C 40.0250 %
979 16-08-2019 00:00:00 17.84 C 34.2250 %
980 17-08-2019 00:00:00 17.89333 C 38.0750 %
981 18-08-2019 00:00:00 19.71833 C 44.5000 %
982 19-08-2019 00:00:00 18.45167 C 33.8417 %
983 20-08-2019 00:00:00 15.91167 C 33.3250 %
984 21-08-2019 00:00:00 16.52917 C 33.4750 %
985 22-08-2019 00:00:00 17.12333 C 32.3667 %
986 23-08-2019 00:00:00 18.31667 C 31.5083 %
987 24-08-2019 00:00:00 19.36333 C 30.9833 %
988 25-08-2019 00:00:00 21.54583 C 29.8917 %
989 26-08-2019 00:00:00 22.17 C 33.4833 %
990 27-08-2019 00:00:00 22.70333 C 35.1667 %
991 28-08-2019 00:00:00 23.4425 C 30.4583 %
992 29-08-2019 00:00:00 22.20333 C 28.3583 %
993 30-08-2019 00:00:00 21.07 C 29.2583 %
994 31-08-2019 00:00:00 21.975 C 30.7583 %
995 01-09-2019 00:00:00 18.8525 C 26.8333 %
996 02-09-2019 00:00:00 15.49333 C 28.2000 %
997 03-09-2019 00:00:00 15.72917 C 28.0833 %
998 04-09-2019 00:00:00 16.9525 C 33.9667 %
999 05-09-2019 00:00:00 15.59 C 26.2917 %
1000 06-09-2019 00:00:00 13.58917 C 31.1917 %
Sensor: Nr:Datum:Temp:Feuchte:
Aussen-T/F 1001 07-09-2019 00:00:00 12.6975 C 39.5000 %
1002 08-09-2019 00:00:00 12.7439 C 48.5935 %
1003 09-09-2019 00:00:00 15.23733 C 38.6667 %
1004 10-09-2019 00:00:00 12.20486 C 22.8264 %
1005 11-09-2019 00:00:00 13.35556 C 20.8472 %
1006 12-09-2019 00:00:00 19.325 C 20.0000 %
1007 13-09-2019 00:00:00 17.86806 C 20.1111 %
1008 14-09-2019 00:00:00 15.93333 C 22.4375 %
1009 15-09-2019 00:00:00 15.65694 C 21.2778 %
1010 16-09-2019 00:00:00 16.21389 C 20.0000 %
1011 17-09-2019 00:00:00 15.87708 C 20.0000 %
1012 18-09-2019 00:00:00 11.47361 C 20.7917 %
1013 19-09-2019 00:00:00 10.53333 C 21.8194 %
1014 20-09-2019 00:00:00 10.80486 C 20.8472 %
1015 21-09-2019 00:00:00 12.45278 C 20.6597 %
1016 22-09-2019 00:00:00 14.78542 C 20.7500 %
1017 23-09-2019 00:00:00 16.6875 C 22.1528 %
1018 24-09-2019 00:00:00 13.94306 C 26.6319 %
1019 25-09-2019 00:00:00 15.31806 C 25.0417 %
1020 26-09-2019 00:00:00 16.10903 C 26.0000 %
1021 27-09-2019 00:00:00 16.23333 C 23.7708 %
1022 28-09-2019 00:00:00 15.40208 C 22.5833 %
1023 29-09-2019 00:00:00 16.05972 C 21.6597 %
1024 30-09-2019 00:00:00 15.48194 C 21.1319 %
1025 01-10-2019 00:00:00 15.84375 C 23.4931 %
Sensor: Nr:Datum:Temp:Feuchte:
Aussen-T/F 1026 02-10-2019 00:00:00 12.57569 C 23.6111 %
1027 03-10-2019 00:00:00 9.35625 C 27.6944 %
1028 04-10-2019 00:00:00 10.03681 C 31.8403 %
1029 05-10-2019 00:00:00 10.32986 C 26.5903 %
1030 06-10-2019 00:00:00 7.85764 C 34.1250 %
1031 07-10-2019 00:00:00 9.80764 C 31.8819 %
1032 08-10-2019 00:00:00 12.35833 C 31.0694 %
1033 09-10-2019 00:00:00 11.56667 C 27.7431 %
1034 10-10-2019 00:00:00 11.49097 C 26.2153 %
1035 11-10-2019 00:00:00 12.41458 C 28.8194 %
1036 12-10-2019 00:00:00 13.21111 C 29.6875 %
1037 13-10-2019 00:00:00 16.35417 C 28.4722 %
1038 14-10-2019 00:00:00 15.8125 C 27.6528 %
1039 15-10-2019 00:00:00 13.94028 C 29.8611 %
1040 16-10-2019 00:00:00 12.42153 C 29.2917 %
1041 17-10-2019 00:00:00 14.32708 C 27.4167 %
1042 18-10-2019 00:00:00 12.3125 C 29.7292 %
1043 19-10-2019 00:00:00 12.78194 C 28.2083 %
1044 20-10-2019 00:00:00 13.0875 C 34.7778 %
1045 21-10-2019 00:00:00 13.30486 C 29.2014 %
1046 22-10-2019 00:00:00 11.45 C 27.8819 %
1047 23-10-2019 00:00:00 10.68403 C 31.1181 %
1048 24-10-2019 00:00:00 13.85208 C 27.9236 %
1049 25-10-2019 00:00:00 13.1625 C 24.9444 %
1050 26-10-2019 00:00:00 12.72639 C 27.5417 %
Sensor: Nr:Datum:Temp:Feuchte:
Aussen-T/F 1051 27-10-2019 00:00:00 9.68467 C 30.8733 %
1052 28-10-2019 00:00:00 5.91597 C 35.2014 %
1053 29-10-2019 00:00:00 6.21181 C 29.3264 %
1054 30-10-2019 00:00:00 2.93333 C 34.5347 %
1055 31-10-2019 00:00:00 1.41875 C 34.8333 %
1056 01-11-2019 00:00:00 5.44792 C 36.7292 %
1057 02-11-2019 00:00:00 12.8125 C 27.6458 %
1058 03-11-2019 00:00:00 11.45069 C 29.7639 %
1059 04-11-2019 00:00:00 9.88542 C 30.2153 %
1060 05-11-2019 00:00:00 9.25069 C 27.4306 %
1061 06-11-2019 00:00:00 8.33542 C 34.7014 %
1062 07-11-2019 00:00:00 7.30278 C 33.8333 %
1063 08-11-2019 00:00:00 4.29028 C 37.7153 %
1064 09-11-2019 00:00:00 4.26806 C 33.1111 %
1065 10-11-2019 00:00:00 2.51319 C 34.9861 %
1066 11-11-2019 00:00:00 4.2 C 27.4792 %
1067 12-11-2019 00:00:00 5.41667 C 25.4792 %
1068 13-11-2019 00:00:00 4.93472 C 22.9861 %
1069 14-11-2019 00:00:00 4.86042 C 26.9861 %
1070 15-11-2019 00:00:00 4.08472 C 26.3333 %
1071 16-11-2019 00:00:00 1.19444 C 38.8125 %
1072 17-11-2019 00:00:00 2.39861 C 40.2708 %
1073 18-11-2019 00:00:00 3.51667 C 36.2847 %
1074 19-11-2019 00:00:00 3.06736 C 36.5833 %
1075 20-11-2019 00:00:00 0.75972 C 37.8403 %
Sensor: Nr:Datum:Temp:Feuchte:
Aussen-T/F 1076 21-11-2019 00:00:00 1.18951 C 39.3846 %
1077 22-11-2019 00:00:00 3.65972 C 35.6806 %
1078 23-11-2019 00:00:00 4.64653 C 33.3889 %
1079 24-11-2019 00:00:00 1.99861 C 41.4722 %
1080 25-11-2019 00:00:00 4.16319 C 39.3681 %
1081 26-11-2019 00:00:00 7.75903 C 34.8472 %
1082 27-11-2019 00:00:00 9.72083 C 30.6875 %
1083 28-11-2019 00:00:00 10.55833 C 22.1319 %
1084 29-11-2019 00:00:00 5.75486 C 30.7639 %
1085 30-11-2019 00:00:00 0.48194 C 42.0972 %
1086 01-12-2019 00:00:00 1.14236 C 33.0139 %
1087 02-12-2019 00:00:00 1.20556 C 36.2986 %
1088 03-12-2019 00:00:00 3.97431 C 39.2292 %
1089 04-12-2019 00:00:00 0.41389 C 41.6111 %
1090 05-12-2019 00:00:00 -2.03194 C 42.0972 %
1091 06-12-2019 00:00:00 2.6125 C 34.4722 %
1092 07-12-2019 00:00:00 8.20694 C 27.7292 %
1093 08-12-2019 00:00:00 9.69931 C 24.2778 %
1094 09-12-2019 00:00:00 7.09444 C 23.9722 %
1095 10-12-2019 00:00:00 2.37361 C 34.0000 %
Sensor: Nr:Datum:Temp:Feuchte:
G-T/H 1 11-12-2016 00:00:00 8.39667 C 74.1583 %
2 12-12-2016 00:00:00 9.10083 C 74.1333 %
3 13-12-2016 00:00:00 8.56083 C 71.4833 %
4 14-12-2016 00:00:00 8.81583 C 74.0417 %
5 15-12-2016 00:00:00 9.39 C 74.3000 %
6 16-12-2016 00:00:00 9.12417 C 69.5333 %
7 17-12-2016 00:00:00 7.19138 C 66.8793 %
8 18-12-2016 00:00:00 6.47667 C 73.8167 %
9 19-12-2016 00:00:00 6.53917 C 69.9833 %
10 20-12-2016 00:00:00 7.37 C 63.5167 %
11 21-12-2016 00:00:00 6.99 C 64.7917 %
12 22-12-2016 00:00:00 7.68917 C 69.0917 %
13 23-12-2016 00:00:00 7.73917 C 71.5917 %
14 24-12-2016 00:00:00 8.2975 C 72.4083 %
15 25-12-2016 00:00:00 8.90417 C 73.3417 %
16 26-12-2016 00:00:00 9.52917 C 72.0250 %
17 27-12-2016 00:00:00 8.22333 C 68.1667 %
18 28-12-2016 00:00:00 8.0975 C 69.3167 %
19 29-12-2016 00:00:00 6.70583 C 61.8833 %
20 30-12-2016 00:00:00 5.99833 C 63.3083 %
21 31-12-2016 00:00:00 5.83083 C 62.2667 %
22 01-01-2017 00:00:00 5.44917 C 64.1833 %
23 02-01-2017 00:00:00 5.875 C 67.6500 %
24 03-01-2017 00:00:00 6.26833 C 69.1333 %
25 04-01-2017 00:00:00 6.87333 C 70.5333 %
Sensor: Nr:Datum:Temp:Feuchte:
G-T/H 26 05-01-2017 00:00:00 6.42167 C 64.7417 %
27 06-01-2017 00:00:00 5.2175 C 62.1250 %
28 07-01-2017 00:00:00 5.225 C 61.2333 %
29 08-01-2017 00:00:00 5.37083 C 67.6667 %
30 09-01-2017 00:00:00 5.805 C 70.2583 %
31 10-01-2017 00:00:00 6.215 C 69.9833 %
32 11-01-2017 00:00:00 6.85417 C 73.1167 %
33 12-01-2017 00:00:00 7.36667 C 72.3333 %
34 13-01-2017 00:00:00 7.38917 C 68.9917 %
35 14-01-2017 00:00:00 6.96667 C 66.6000 %
36 15-01-2017 00:00:00 6.63083 C 66.1917 %
37 16-01-2017 00:00:00 5.80917 C 64.9167 %
38 17-01-2017 00:00:00 5.4625 C 65.3000 %
39 18-01-2017 00:00:00 5.16083 C 63.5417 %
40 19-01-2017 00:00:00 4.74667 C 62.7667 %
41 20-01-2017 00:00:00 4.44583 C 61.4250 %
42 21-01-2017 00:00:00 4.46917 C 61.4667 %
43 22-01-2017 00:00:00 6.90667 C 56.2500 %
44 23-01-2017 00:00:00 4.80167 C 59.9750 %
45 24-01-2017 00:00:00 4.74333 C 66.7000 %
46 25-01-2017 00:00:00 5.13697 C 66.5546 %
47 26-01-2017 00:00:00 4.95 C 66.4333 %
48 27-01-2017 00:00:00 4.87667 C 64.0167 %
49 28-01-2017 00:00:00 4.965 C 64.2417 %
50 29-01-2017 00:00:00 5.46167 C 67.2750 %
Sensor: Nr:Datum:Temp:Feuchte:
G-T/H 51 30-01-2017 00:00:00 6.3575 C 70.0750 %
52 31-01-2017 00:00:00 7.135 C 70.9417 %
53 01-02-2017 00:00:00 7.0975 C 69.4500 %
54 02-02-2017 00:00:00 7.63083 C 71.6000 %
55 03-02-2017 00:00:00 7.80583 C 71.7917 %
56 04-02-2017 00:00:00 7.86667 C 73.2833 %
57 05-02-2017 00:00:00 7.52167 C 72.1917 %
58 06-02-2017 00:00:00 7.44667 C 71.3500 %
59 07-02-2017 00:00:00 7.65917 C 69.1583 %
60 08-02-2017 00:00:00 7.745 C 67.0667 %
61 09-02-2017 00:00:00 6.61083 C 60.3750 %
62 10-02-2017 00:00:00 6.26583 C 62.6250 %
63 11-02-2017 00:00:00 6.50167 C 66.3417 %
64 12-02-2017 00:00:00 6.90333 C 69.8583 %
65 13-02-2017 00:00:00 6.77417 C 66.2250 %
66 14-02-2017 00:00:00 6.34667 C 63.3750 %
67 15-02-2017 00:00:00 6.06333 C 64.3167 %
68 16-02-2017 00:00:00 6.4425 C 67.4583 %
69 17-02-2017 00:00:00 7.16417 C 70.9167 %
70 18-02-2017 00:00:00 7.8825 C 71.6500 %
71 19-02-2017 00:00:00 6.91667 C 66.6917 %
72 20-02-2017 00:00:00 7.93417 C 71.2667 %
73 21-02-2017 00:00:00 9.10333 C 73.0000 %
74 22-02-2017 00:00:00 9.84667 C 73.5750 %
75 23-02-2017 00:00:00 10.02917 C 72.3500 %
Sensor: Nr:Datum:Temp:Feuchte:
G-T/H 76 24-02-2017 00:00:00 9.025 C 66.0583 %
77 25-02-2017 00:00:00 7.8125 C 64.1750 %
78 26-02-2017 00:00:00 8.2975 C 69.2667 %
79 27-02-2017 00:00:00 9.63917 C 70.5750 %
80 28-02-2017 00:00:00 9.33 C 66.9583 %
81 01-03-2017 00:00:00 8.60583 C 69.5417 %
82 02-03-2017 00:00:00 8.9175 C 65.6500 %
83 03-03-2017 00:00:00 8.58667 C 65.2583 %
84 04-03-2017 00:00:00 9.72083 C 67.1417 %
85 05-03-2017 00:00:00 9.9025 C 68.5167 %
86 06-03-2017 00:00:00 9.1775 C 69.4333 %
87 07-03-2017 00:00:00 8.97833 C 70.7333 %
88 08-03-2017 00:00:00 8.28333 C 70.1333 %
89 09-03-2017 00:00:00 9.54333 C 71.3083 %
90 10-03-2017 00:00:00 9.94 C 66.3417 %
91 11-03-2017 00:00:00 9.4 C 61.6667 %
92 12-03-2017 00:00:00 9.37083 C 56.6667 %
93 13-03-2017 00:00:00 9.06083 C 61.4333 %
94 14-03-2017 00:00:00 9.58917 C 65.5667 %
95 15-03-2017 00:00:00 10.38083 C 67.1833 %
96 16-03-2017 00:00:00 9.89833 C 64.6750 %
97 17-03-2017 00:00:00 9.92917 C 66.9833 %
98 18-03-2017 00:00:00 10.04833 C 66.3167 %
99 19-03-2017 00:00:00 10.80333 C 69.8417 %
100 20-03-2017 00:00:00 11.3975 C 70.0000 %
Sensor: Nr:Datum:Temp:Feuchte:
G-T/H 101 21-03-2017 00:00:00 11.28667 C 69.3000 %
102 22-03-2017 00:00:00 9.84 C 63.8000 %
103 23-03-2017 00:00:00 10.27083 C 66.0750 %
104 24-03-2017 00:00:00 10.7825 C 62.7500 %
105 25-03-2017 00:00:00 10.76167 C 57.7333 %
106 26-03-2017 00:00:00 10.54783 C 58.5826 %
107 27-03-2017 00:00:00 10.2775 C 50.5417 %
108 28-03-2017 00:00:00 11.49667 C 53.5167 %
109 29-03-2017 00:00:00 12.4025 C 60.0000 %
110 30-03-2017 00:00:00 13.8 C 58.8333 %
111 31-03-2017 00:00:00 13.9 C 55.5083 %
112 01-04-2017 00:00:00 13.5225 C 61.1333 %
113 02-04-2017 00:00:00 13.045 C 62.0500 %
114 03-04-2017 00:00:00 12.37917 C 61.7583 %
115 04-04-2017 00:00:00 11.70917 C 61.7250 %
116 05-04-2017 00:00:00 11.2225 C 60.3000 %
117 06-04-2017 00:00:00 11.25083 C 61.8833 %
118 07-04-2017 00:00:00 11.30833 C 61.5667 %
119 08-04-2017 00:00:00 12.10917 C 64.3167 %
120 09-04-2017 00:00:00 11.93083 C 63.3250 %
121 10-04-2017 00:00:00 12.2625 C 64.3417 %
122 11-04-2017 00:00:00 11.93333 C 61.3750 %
123 12-04-2017 00:00:00 11.73417 C 62.1250 %
124 13-04-2017 00:00:00 12.4775 C 62.8750 %
125 14-04-2017 00:00:00 12.10583 C 60.6583 %
Sensor: Nr:Datum:Temp:Feuchte:
G-T/H 126 15-04-2017 00:00:00 11.93917 C 62.9917 %
127 16-04-2017 00:00:00 11.1475 C 62.5750 %
128 17-04-2017 00:00:00 10.5075 C 62.2583 %
129 18-04-2017 00:00:00 9.84833 C 61.1750 %
130 19-04-2017 00:00:00 9.13917 C 59.2667 %
131 20-04-2017 00:00:00 8.37167 C 53.2417 %
132 21-04-2017 00:00:00 9.44167 C 57.5750 %
133 22-04-2017 00:00:00 10.7925 C 61.3833 %
134 23-04-2017 00:00:00 10.56417 C 59.6333 %
135 24-04-2017 00:00:00 10.66583 C 57.9750 %
136 25-04-2017 00:00:00 11.07395 C 57.7143 %
137 26-04-2017 00:00:00 10.9975 C 52.8000 %
138 27-04-2017 00:00:00 10.80167 C 55.5250 %
139 28-04-2017 00:00:00 9.695 C 54.5000 %
140 29-04-2017 00:00:00 10.51083 C 59.0833 %
141 30-04-2017 00:00:00 11.60583 C 55.6167 %
142 01-05-2017 00:00:00 12.7 C 56.0000 %
143 02-05-2017 00:00:00 11.525 C 63.9432 %
144 03-05-2017 00:00:00 11.48417 C 65.4750 %
145 04-05-2017 00:00:00 12.02333 C 66.8667 %
146 05-05-2017 00:00:00 12.46583 C 66.8917 %
147 06-05-2017 00:00:00 12.505 C 65.2333 %
148 07-05-2017 00:00:00 13.83043 C 67.2696 %
149 08-05-2017 00:00:00 12.83417 C 66.4333 %
150 09-05-2017 00:00:00 12.20583 C 62.3250 %
Sensor: Nr:Datum:Temp:Feuchte:
G-T/H 151 10-05-2017 00:00:00 12.52917 C 54.6833 %
152 11-05-2017 00:00:00 13.12917 C 60.2667 %
153 12-05-2017 00:00:00 14.3375 C 64.2333 %
154 13-05-2017 00:00:00 14.86667 C 65.6583 %
155 14-05-2017 00:00:00 15.34083 C 65.8667 %
156 15-05-2017 00:00:00 16.35667 C 54.4250 %
157 16-05-2017 00:00:00 18.42417 C 50.3083 %
158 17-05-2017 00:00:00 19.76083 C 51.8500 %
159 18-05-2017 00:00:00 18.36833 C 59.9083 %
160 19-05-2017 00:00:00 16.6075 C 64.9333 %
161 20-05-2017 00:00:00 14.935 C 64.1833 %
162 21-05-2017 00:00:00 15.3875 C 58.0667 %
163 22-05-2017 00:00:00 16.8975 C 56.7000 %
164 23-05-2017 00:00:00 17.30167 C 60.5667 %
165 24-05-2017 00:00:00 17.77333 C 59.5750 %
166 25-05-2017 00:00:00 17.38 C 63.0583 %
167 26-05-2017 00:00:00 18.09583 C 61.1583 %
168 27-05-2017 00:00:00 17.95583 C 63.3917 %
169 28-05-2017 00:00:00 18.6625 C 65.0333 %
170 29-05-2017 00:00:00 22.53667 C 59.7333 %
171 30-05-2017 00:00:00 22.135 C 60.5250 %
172 31-05-2017 00:00:00 19.19583 C 54.8917 %
173 01-06-2017 00:00:00 19.02333 C 60.4250 %
174 02-06-2017 00:00:00 19.42667 C 64.1667 %
175 03-06-2017 00:00:00 18.96167 C 68.0500 %
Sensor: Nr:Datum:Temp:Feuchte:
G-T/H 176 04-06-2017 00:00:00 18.245 C 68.2333 %
177 05-06-2017 00:00:00 17.78167 C 63.8583 %
178 06-06-2017 00:00:00 17.53167 C 62.7417 %
179 07-06-2017 00:00:00 16.31 C 63.1083 %
180 08-06-2017 00:00:00 17.10583 C 63.0167 %
181 09-06-2017 00:00:00 17.65833 C 65.4167 %
182 10-06-2017 00:00:00 17.03667 C 64.8083 %
183 11-06-2017 00:00:00 17.98917 C 66.8667 %
184 12-06-2017 00:00:00 20.2225 C 51.9750 %
185 13-06-2017 00:00:00 19.605 C 52.3167 %
186 14-06-2017 00:00:00 20.2375 C 52.8333 %
187 15-06-2017 00:00:00 22.41083 C 52.1917 %
188 16-06-2017 00:00:00 21.05417 C 50.7750 %
189 17-06-2017 00:00:00 19.55083 C 56.9583 %
190 18-06-2017 00:00:00 19.47917 C 61.1333 %
191 19-06-2017 00:00:00 21.37083 C 53.8417 %
192 20-06-2017 00:00:00 23.81417 C 48.4333 %
193 21-06-2017 00:00:00 23.19167 C 55.3333 %
194 22-06-2017 00:00:00 24.54167 C 57.7417 %
195 23-06-2017 00:00:00 23.06 C 57.7583 %
196 24-06-2017 00:00:00 22.64 C 51.3500 %
197 25-06-2017 00:00:00 21.49083 C 54.8583 %
198 26-06-2017 00:00:00 21.5775 C 55.2833 %
199 27-06-2017 00:00:00 20.69417 C 59.6083 %
200 28-06-2017 00:00:00 19.86 C 64.0167 %
Sensor: Nr:Datum:Temp:Feuchte:
G-T/H 201 29-06-2017 00:00:00 19.49417 C 65.1083 %
202 30-06-2017 00:00:00 19.17167 C 60.7667 %
203 01-07-2017 00:00:00 18.81833 C 64.2833 %
204 02-07-2017 00:00:00 18.1925 C 66.6917 %
205 03-07-2017 00:00:00 19.315 C 56.5417 %
206 04-07-2017 00:00:00 20.50083 C 54.7667 %
207 05-07-2017 00:00:00 21.10917 C 57.5583 %
208 06-07-2017 00:00:00 21.4425 C 61.7000 %
209 07-07-2017 00:00:00 21.30333 C 64.3833 %
210 08-07-2017 00:00:00 22.9425 C 56.5250 %
211 09-07-2017 00:00:00 22.685 C 59.5417 %
212 10-07-2017 00:00:00 21.98167 C 63.7417 %
213 11-07-2017 00:00:00 21.20417 C 60.4000 %
214 12-07-2017 00:00:00 20.39167 C 63.4250 %
215 13-07-2017 00:00:00 18.97917 C 57.3833 %
216 14-07-2017 00:00:00 18.96417 C 57.4250 %
217 15-07-2017 00:00:00 18.67083 C 60.6333 %
218 16-07-2017 00:00:00 19.535 C 63.6583 %
219 17-07-2017 00:00:00 19.89917 C 65.6333 %
220 18-07-2017 00:00:00 21.48667 C 62.7583 %
221 19-07-2017 00:00:00 23.825 C 58.2333 %
222 20-07-2017 00:00:00 22.49083 C 62.1083 %
223 21-07-2017 00:00:00 21.79917 C 56.1083 %
224 22-07-2017 00:00:00 22.77167 C 60.8833 %
225 23-07-2017 00:00:00 20.45167 C 59.6000 %
Sensor: Nr:Datum:Temp:Feuchte:
G-T/H 226 24-07-2017 00:00:00 19.83667 C 60.9500 %
227 25-07-2017 00:00:00 18.2725 C 64.9333 %
228 26-07-2017 00:00:00 17.95417 C 67.3667 %
229 27-07-2017 00:00:00 18.53667 C 68.7167 %
230 28-07-2017 00:00:00 18.61833 C 68.6833 %
231 29-07-2017 00:00:00 19.14917 C 68.9333 %
232 30-07-2017 00:00:00 20.87667 C 66.4833 %
233 31-07-2017 00:00:00 21.91167 C 61.1500 %
234 01-08-2017 00:00:00 20.985 C 66.8500 %
235 02-08-2017 00:00:00 21.5925 C 67.6250 %
236 03-08-2017 00:00:00 22.08 C 67.0000 %
237 04-08-2017 00:00:00 21.2975 C 66.9500 %
238 05-08-2017 00:00:00 21.27333 C 64.2583 %
239 06-08-2017 00:00:00 20.1425 C 61.5500 %
240 07-08-2017 00:00:00 19.51083 C 54.8250 %
241 08-08-2017 00:00:00 19.4725 C 62.0000 %
242 09-08-2017 00:00:00 19.2825 C 61.9750 %
243 10-08-2017 00:00:00 18.88083 C 65.6083 %
244 11-08-2017 00:00:00 17.85167 C 68.4083 %
245 12-08-2017 00:00:00 17.38667 C 69.6917 %
246 13-08-2017 00:00:00 17.925 C 70.8917 %
247 14-08-2017 00:00:00 19.18583 C 69.3417 %
248 15-08-2017 00:00:00 19.95167 C 75.4000 %
249 16-08-2017 00:00:00 20.395 C 70.4750 %
250 17-08-2017 00:00:00 20.77833 C 67.9583 %
Sensor: Nr:Datum:Temp:Feuchte:
G-T/H 251 18-08-2017 00:00:00 20.07417 C 69.9500 %
252 19-08-2017 00:00:00 18.63167 C 65.2583 %
253 20-08-2017 00:00:00 18.18833 C 65.5833 %
254 21-08-2017 00:00:00 18.33833 C 61.8250 %
255 22-08-2017 00:00:00 18.3375 C 62.2833 %
256 23-08-2017 00:00:00 19.39 C 63.6250 %
257 24-08-2017 00:00:00 19.39667 C 66.6750 %
258 25-08-2017 00:00:00 19.01417 C 68.4583 %
259 26-08-2017 00:00:00 19.33833 C 70.7917 %
260 27-08-2017 00:00:00 19.525 C 71.7250 %
261 28-08-2017 00:00:00 20.30583 C 68.8833 %
262 29-08-2017 00:00:00 21.09333 C 67.8833 %
263 30-08-2017 00:00:00 20.41167 C 70.1917 %
264 31-08-2017 00:00:00 19.86975 C 70.1176 %
265 01-09-2017 00:00:00 18.04083 C 64.9250 %
266 02-09-2017 00:00:00 17.755 C 68.6500 %
267 03-09-2017 00:00:00 16.90667 C 68.1250 %
268 04-09-2017 00:00:00 16.00917 C 69.3750 %
269 05-09-2017 00:00:00 18.28917 C 72.6000 %
270 06-09-2017 00:00:00 18.70833 C 64.8917 %
271 07-09-2017 00:00:00 17.72833 C 62.5167 %
272 08-09-2017 00:00:00 17.6225 C 64.3417 %
273 09-09-2017 00:00:00 17.3775 C 67.9250 %
274 10-09-2017 00:00:00 16.50417 C 66.3083 %
275 11-09-2017 00:00:00 16.29333 C 68.5500 %
Sensor: Nr:Datum:Temp:Feuchte:
G-T/H 276 12-09-2017 00:00:00 16.13083 C 70.5250 %
277 13-09-2017 00:00:00 15.99917 C 71.1667 %
278 14-09-2017 00:00:00 15.7775 C 71.3250 %
279 15-09-2017 00:00:00 15.14 C 71.7083 %
280 16-09-2017 00:00:00 14.15 C 67.6833 %
281 17-09-2017 00:00:00 14.06833 C 69.8750 %
282 18-09-2017 00:00:00 13.68417 C 70.3917 %
283 19-09-2017 00:00:00 14.2875 C 73.3667 %
284 20-09-2017 00:00:00 14.18167 C 72.9250 %
285 21-09-2017 00:00:00 14.33333 C 68.9000 %
286 22-09-2017 00:00:00 14.20083 C 71.1333 %
287 23-09-2017 00:00:00 14.86583 C 71.6917 %
288 24-09-2017 00:00:00 13.5 C 74.4750 %
289 25-09-2017 00:00:00 14.49667 C 74.4000 %
290 26-09-2017 00:00:00 14.90833 C 74.1417 %
291 27-09-2017 00:00:00 15.24333 C 75.2000 %
292 28-09-2017 00:00:00 15.29833 C 75.7917 %
293 29-09-2017 00:00:00 16.4625 C 76.9750 %
294 30-09-2017 00:00:00 16.51167 C 76.8667 %
295 01-10-2017 00:00:00 15.07167 C 73.4917 %
296 02-10-2017 00:00:00 14.96167 C 75.8333 %
297 03-10-2017 00:00:00 15.05583 C 75.3167 %
298 04-10-2017 00:00:00 14.14417 C 72.4833 %
299 05-10-2017 00:00:00 14.39917 C 74.4417 %
300 06-10-2017 00:00:00 13.515 C 72.0000 %
Sensor: Nr:Datum:Temp:Feuchte:
G-T/H 301 07-10-2017 00:00:00 13.36583 C 74.1000 %
302 08-10-2017 00:00:00 13.59833 C 76.1167 %
303 09-10-2017 00:00:00 13.71417 C 76.4750 %
304 10-10-2017 00:00:00 14.10667 C 77.2250 %
305 11-10-2017 00:00:00 14.48833 C 77.7500 %
306 12-10-2017 00:00:00 14.45833 C 77.2083 %
307 13-10-2017 00:00:00 14.39417 C 77.1167 %
308 14-10-2017 00:00:00 14.55667 C 77.2000 %
309 15-10-2017 00:00:00 14.22167 C 77.1917 %
310 16-10-2017 00:00:00 14.72417 C 80.6250 %
311 17-10-2017 00:00:00 14.50583 C 80.0333 %
312 18-10-2017 00:00:00 14.23 C 79.1833 %
313 19-10-2017 00:00:00 13.8025 C 76.9750 %
314 20-10-2017 00:00:00 14.11261 C 77.8235 %
315 21-10-2017 00:00:00 13.58417 C 75.6250 %
316 22-10-2017 00:00:00 13.64333 C 74.5083 %
317 23-10-2017 00:00:00 13.15167 C 73.8667 %
318 24-10-2017 00:00:00 13.7125 C 77.3167 %
319 25-10-2017 00:00:00 14.60167 C 78.0000 %
320 26-10-2017 00:00:00 14.7325 C 78.0000 %
321 27-10-2017 00:00:00 14.395 C 76.2583 %
322 28-10-2017 00:00:00 13.38917 C 71.6000 %
323 29-10-2017 00:00:00 13.2736 C 70.4000 %
324 30-10-2017 00:00:00 11.94167 C 67.1167 %
325 31-10-2017 00:00:00 11.315 C 67.7083 %
Sensor: Nr:Datum:Temp:Feuchte:
G-T/H 326 01-11-2017 00:00:00 11.75833 C 71.3750 %
327 02-11-2017 00:00:00 11.43667 C 71.0500 %
328 03-11-2017 00:00:00 11.36333 C 71.6167 %
329 04-11-2017 00:00:00 11.05083 C 71.6417 %
330 05-11-2017 00:00:00 11.7925 C 73.8417 %
331 06-11-2017 00:00:00 10.80417 C 68.9083 %
332 07-11-2017 00:00:00 10.16167 C 68.1500 %
333 08-11-2017 00:00:00 10.51583 C 72.8417 %
334 09-11-2017 00:00:00 10.89833 C 74.4833 %
335 10-11-2017 00:00:00 10.70833 C 72.4333 %
336 11-11-2017 00:00:00 10.25917 C 71.3500 %
337 12-11-2017 00:00:00 9.99417 C 71.9333 %
338 13-11-2017 00:00:00 9.82667 C 72.4833 %
339 14-11-2017 00:00:00 9.44833 C 71.5833 %
340 15-11-2017 00:00:00 9.78417 C 73.4833 %
341 16-11-2017 00:00:00 9.8675 C 71.0000 %
342 17-11-2017 00:00:00 10.21917 C 72.6917 %
343 18-11-2017 00:00:00 8.93333 C 68.2833 %
344 19-11-2017 00:00:00 9.44917 C 70.7667 %
345 20-11-2017 00:00:00 9.4175 C 70.1500 %
346 21-11-2017 00:00:00 10.07833 C 73.5833 %
347 22-11-2017 00:00:00 10.72 C 73.9917 %
348 23-11-2017 00:00:00 10.0175 C 71.3000 %
349 24-11-2017 00:00:00 11.32583 C 75.4750 %
350 25-11-2017 00:00:00 10.815 C 70.9083 %
Sensor: Nr:Datum:Temp:Feuchte:
G-T/H 351 26-11-2017 00:00:00 9.25 C 65.7167 %
352 27-11-2017 00:00:00 9.09917 C 68.4083 %
353 28-11-2017 00:00:00 9.38167 C 70.0917 %
354 29-11-2017 00:00:00 8.70583 C 68.4167 %
355 30-11-2017 00:00:00 8.38083 C 67.8167 %
356 01-12-2017 00:00:00 7.8275 C 66.9750 %
357 02-12-2017 00:00:00 6.8025 C 64.3667 %
358 03-12-2017 00:00:00 7.2 C 63.1583 %
359 04-12-2017 00:00:00 7.5275 C 69.7417 %
360 05-12-2017 00:00:00 8.31833 C 73.2750 %
361 06-12-2017 00:00:00 8.98333 C 73.6833 %
362 07-12-2017 00:00:00 8.76667 C 67.2083 %
363 08-12-2017 00:00:00 8.66917 C 66.2417 %
364 09-12-2017 00:00:00 7.4925 C 59.9167 %
365 10-12-2017 00:00:00 7.18333 C 64.1750 %
366 11-12-2017 00:00:00 7.94417 C 72.5667 %
367 12-12-2017 00:00:00 8.19083 C 68.4083 %
368 13-12-2017 00:00:00 7.93917 C 67.1333 %
369 14-12-2017 00:00:00 7.92667 C 69.1000 %
370 15-12-2017 00:00:00 7.94167 C 70.5000 %
371 16-12-2017 00:00:00 7.925 C 71.0833 %
372 17-12-2017 00:00:00 7.8375 C 69.7667 %
373 18-12-2017 00:00:00 7.10333 C 67.6500 %
374 19-12-2017 00:00:00 7.60417 C 70.4667 %
375 20-12-2017 00:00:00 8.29083 C 73.0000 %
Sensor: Nr:Datum:Temp:Feuchte:
G-T/H 376 21-12-2017 00:00:00 9.43333 C 74.8833 %
377 22-12-2017 00:00:00 10.32333 C 75.8833 %
378 23-12-2017 00:00:00 10.45667 C 76.0750 %
379 24-12-2017 00:00:00 10.61417 C 75.9000 %
380 25-12-2017 00:00:00 10.30833 C 71.7667 %
381 26-12-2017 00:00:00 9.0975 C 68.1083 %
382 27-12-2017 00:00:00 8.905 C 71.4083 %
383 28-12-2017 00:00:00 8.96167 C 70.6417 %
384 29-12-2017 00:00:00 14.36852 C 70.8611 %
385 30-12-2017 00:00:00 8.1925 C 73.4750 %
386 31-12-2017 00:00:00 10.73 C 74.9167 %
387 01-01-2018 00:00:00 10.91333 C 70.9167 %
388 02-01-2018 00:00:00 9.93833 C 71.7000 %
389 03-01-2018 00:00:00 9.98417 C 71.9333 %
390 04-01-2018 00:00:00 9.81167 C 73.7667 %
391 05-01-2018 00:00:00 10.06833 C 72.5333 %
392 06-01-2018 00:00:00 9.95417 C 74.1667 %
393 07-01-2018 00:00:00 9.5275 C 72.0083 %
394 08-01-2018 00:00:00 8.9575 C 69.3000 %
395 09-01-2018 00:00:00 8.81583 C 71.4583 %
396 10-01-2018 00:00:00 9.03917 C 73.1917 %
397 11-01-2018 00:00:00 9.4725 C 74.4333 %
398 12-01-2018 00:00:00 9.7375 C 75.0000 %
399 13-01-2018 00:00:00 9.48 C 71.6333 %
400 14-01-2018 00:00:00 8.7325 C 64.1833 %
Sensor: Nr:Datum:Temp:Feuchte:
G-T/H 401 15-01-2018 00:00:00 8.00083 C 65.2500 %
402 16-01-2018 00:00:00 8.6025 C 70.4000 %
403 17-01-2018 00:00:00 8.19 C 66.7833 %
404 18-01-2018 00:00:00 8.2875 C 68.1000 %
405 19-01-2018 00:00:00 8.47333 C 67.2417 %
406 20-01-2018 00:00:00 7.515 C 67.7833 %
407 21-01-2018 00:00:00 7.5275 C 70.9250 %
408 22-01-2018 00:00:00 7.75 C 71.9417 %
409 23-01-2018 00:00:00 8.69492 C 73.4661 %
410 24-01-2018 00:00:00 9.75556 C 74.8120 %
411 25-01-2018 00:00:00 10.6075 C 75.1917 %
412 26-01-2018 00:00:00 10.3125 C 74.1917 %
413 27-01-2018 00:00:00 9.54 C 72.2583 %
414 28-01-2018 00:00:00 9.4625 C 73.1917 %
415 29-01-2018 00:00:00 10.13833 C 74.2667 %
416 30-01-2018 00:00:00 9.76167 C 71.3917 %
417 31-01-2018 00:00:00 9.43 C 72.7083 %
418 01-02-2018 00:00:00 8.55 C 67.8083 %
419 02-02-2018 00:00:00 7.83917 C 68.3833 %
420 03-02-2018 00:00:00 7.98992 C 68.2521 %
421 04-02-2018 00:00:00 7.4 C 63.4333 %
422 05-02-2018 00:00:00 6.47 C 60.2917 %
423 06-02-2018 00:00:00 6.30833 C 61.8333 %
424 07-02-2018 00:00:00 6.2075 C 63.0250 %
425 08-02-2018 00:00:00 5.975 C 61.9833 %
Sensor: Nr:Datum:Temp:Feuchte:
G-T/H 426 09-02-2018 00:00:00 5.43333 C 63.6917 %
427 10-02-2018 00:00:00 6.105 C 66.3083 %
428 11-02-2018 00:00:00 6.99167 C 66.3833 %
429 12-02-2018 00:00:00 7.07833 C 64.5250 %
430 13-02-2018 00:00:00 6.335 C 60.4167 %
431 14-02-2018 00:00:00 5.87917 C 61.6500 %
432 15-02-2018 00:00:00 5.88583 C 66.8833 %
433 16-02-2018 00:00:00 6.29667 C 70.6750 %
434 17-02-2018 00:00:00 6.07083 C 67.1000 %
435 18-02-2018 00:00:00 5.89667 C 66.5500 %
436 19-02-2018 00:00:00 5.89083 C 68.3167 %
437 20-02-2018 00:00:00 6.01 C 66.1333 %
438 21-02-2018 00:00:00 5.89083 C 63.8500 %
439 22-02-2018 00:00:00 5.73333 C 61.2667 %
440 23-02-2018 00:00:00 5.48583 C 60.5583 %
441 24-02-2018 00:00:00 5.12583 C 59.3667 %
442 25-02-2018 00:00:00 4.93667 C 56.8667 %
443 26-02-2018 00:00:00 4.61167 C 55.2417 %
444 27-02-2018 00:00:00 4.5275 C 52.9667 %
445 28-02-2018 00:00:00 4.28667 C 51.9750 %
446 01-03-2018 00:00:00 4.305 C 53.0333 %
447 02-03-2018 00:00:00 4.77417 C 54.7917 %
448 03-03-2018 00:00:00 5.21917 C 60.2833 %
449 04-03-2018 00:00:00 6.01083 C 65.3000 %
450 05-03-2018 00:00:00 7.26 C 67.7083 %
Sensor: Nr:Datum:Temp:Feuchte:
G-T/H 451 06-03-2018 00:00:00 7.275 C 64.2583 %
452 07-03-2018 00:00:00 8.05833 C 67.2083 %
453 08-03-2018 00:00:00 8.30667 C 69.2500 %
454 09-03-2018 00:00:00 8.13 C 70.0750 %
455 10-03-2018 00:00:00 8.92167 C 72.5500 %
456 11-03-2018 00:00:00 10.33 C 74.6417 %
457 12-03-2018 00:00:00 10.33667 C 74.2417 %
458 13-03-2018 00:00:00 10.06083 C 73.3417 %
459 14-03-2018 00:00:00 9.31667 C 70.8667 %
460 15-03-2018 00:00:00 8.67083 C 68.2833 %
461 16-03-2018 00:00:00 9.4175 C 72.0250 %
462 17-03-2018 00:00:00 8.13333 C 61.2417 %
463 18-03-2018 00:00:00 6.64 C 57.5417 %
464 19-03-2018 00:00:00 6.395 C 58.4417 %
465 20-03-2018 00:00:00 6.19167 C 59.8333 %
466 21-03-2018 00:00:00 6.24 C 61.0167 %
467 22-03-2018 00:00:00 6.45333 C 62.8500 %
468 23-03-2018 00:00:00 7.555 C 68.1250 %
469 24-03-2018 00:00:00 7.95833 C 66.2333 %
470 25-03-2018 00:00:00 7.42522 C 63.5130 %
471 26-03-2018 00:00:00 8.47583 C 65.8417 %
472 27-03-2018 00:00:00 8.32583 C 65.0083 %
473 28-03-2018 00:00:00 9.05 C 70.1833 %
474 29-03-2018 00:00:00 9.1875 C 67.9333 %
475 30-03-2018 00:00:00 8.73083 C 65.5333 %
Sensor: Nr:Datum:Temp:Feuchte:
G-T/H 476 31-03-2018 00:00:00 9.3075 C 68.4417 %
477 01-04-2018 00:00:00 9.65917 C 69.4500 %
478 02-04-2018 00:00:00 9.52333 C 68.1000 %
479 03-04-2018 00:00:00 10.725 C 69.7000 %
480 04-04-2018 00:00:00 11.48583 C 70.6333 %
481 05-04-2018 00:00:00 10.94833 C 68.8000 %
482 06-04-2018 00:00:00 9.26167 C 62.4833 %
483 07-04-2018 00:00:00 10.58667 C 62.3917 %
484 08-04-2018 00:00:00 13.47 C 59.0417 %
485 09-04-2018 00:00:00 14.53917 C 57.1667 %
486 10-04-2018 00:00:00 13.77667 C 63.5000 %
487 11-04-2018 00:00:00 13.00917 C 66.6083 %
488 12-04-2018 00:00:00 12.9425 C 66.9917 %
489 13-04-2018 00:00:00 12.73333 C 67.2917 %
490 14-04-2018 00:00:00 13.63417 C 61.7667 %
491 15-04-2018 00:00:00 13.92167 C 65.0333 %
492 16-04-2018 00:00:00 14.52167 C 62.0000 %
493 17-04-2018 00:00:00 14.20333 C 61.1500 %
494 18-04-2018 00:00:00 14.54417 C 62.2333 %
495 19-04-2018 00:00:00 14.79583 C 62.5583 %
496 20-04-2018 00:00:00 15.73333 C 61.3833 %
497 21-04-2018 00:00:00 15.80333 C 63.5083 %
498 22-04-2018 00:00:00 15.78333 C 66.2917 %
499 23-04-2018 00:00:00 17.01667 C 62.7833 %
500 24-04-2018 00:00:00 16.23833 C 56.5917 %
Sensor: Nr:Datum:Temp:Feuchte:
G-T/H 501 25-04-2018 00:00:00 15.21833 C 62.0333 %
502 26-04-2018 00:00:00 13.76 C 51.5583 %
503 27-04-2018 00:00:00 13.61917 C 56.6250 %
504 28-04-2018 00:00:00 13.9325 C 61.2917 %
505 29-04-2018 00:00:00 14.02083 C 64.6000 %
506 30-04-2018 00:00:00 14.6725 C 64.2917 %
507 01-05-2018 00:00:00 13.36417 C 58.0083 %
508 02-05-2018 00:00:00 13.24833 C 56.1500 %
509 03-05-2018 00:00:00 13.77 C 57.8750 %
510 04-05-2018 00:00:00 13.83917 C 58.3750 %
511 05-05-2018 00:00:00 15.43167 C 55.9333 %
512 06-05-2018 00:00:00 15.6825 C 57.6750 %
513 07-05-2018 00:00:00 17.61 C 52.7917 %
514 08-05-2018 00:00:00 18.74917 C 49.1583 %
515 09-05-2018 00:00:00 17.61417 C 55.5167 %
516 10-05-2018 00:00:00 16.74583 C 61.1667 %
517 11-05-2018 00:00:00 15.555 C 63.3500 %
518 12-05-2018 00:00:00 15.79083 C 63.9333 %
519 13-05-2018 00:00:00 16.08833 C 66.4583 %
520 14-05-2018 00:00:00 15.57667 C 68.2083 %
521 15-05-2018 00:00:00 16.8825 C 59.6083 %
522 16-05-2018 00:00:00 16.71333 C 63.0083 %
523 17-05-2018 00:00:00 15.91 C 63.1083 %
524 18-05-2018 00:00:00 15.1975 C 60.7083 %
525 19-05-2018 00:00:00 15.0375 C 63.1750 %
Sensor: Nr:Datum:Temp:Feuchte:
G-T/H 526 20-05-2018 00:00:00 15.13333 C 64.4667 %
527 21-05-2018 00:00:00 16.85667 C 64.3167 %
528 22-05-2018 00:00:00 17.2475 C 65.6333 %
529 23-05-2018 00:00:00 16.85417 C 68.0583 %
530 24-05-2018 00:00:00 16.56417 C 69.4500 %
531 25-05-2018 00:00:00 17.3275 C 69.1583 %
532 26-05-2018 00:00:00 18.92583 C 67.1167 %
533 27-05-2018 00:00:00 18.99167 C 68.2750 %
534 28-05-2018 00:00:00 18.94167 C 69.8667 %
535 29-05-2018 00:00:00 19.4375 C 69.9667 %
536 30-05-2018 00:00:00 19.22417 C 70.2750 %
537 31-05-2018 00:00:00 19.74667 C 69.8500 %
538 01-06-2018 00:00:00 19.70417 C 70.5583 %
539 02-06-2018 00:00:00 19.1175 C 70.5000 %
540 03-06-2018 00:00:00 19.86917 C 66.6000 %
541 04-06-2018 00:00:00 21.16 C 62.4500 %
542 05-06-2018 00:00:00 21.1225 C 62.2500 %
543 06-06-2018 00:00:00 20.28167 C 64.7000 %
544 07-06-2018 00:00:00 20.33167 C 66.7250 %
545 08-06-2018 00:00:00 20.14167 C 68.3250 %
546 09-06-2018 00:00:00 21.14508 C 68.4918 %
547 10-06-2018 00:00:00 20.73583 C 69.4833 %
548 11-06-2018 00:00:00 20.2075 C 70.2833 %
549 12-06-2018 00:00:00 18.93333 C 70.9417 %
550 13-06-2018 00:00:00 17.78333 C 67.8500 %
Sensor: Nr:Datum:Temp:Feuchte:
G-T/H 551 14-06-2018 00:00:00 17.08167 C 65.6167 %
552 15-06-2018 00:00:00 17.87667 C 69.7333 %
553 16-06-2018 00:00:00 19.23167 C 66.0250 %
554 17-06-2018 00:00:00 19.20917 C 66.1250 %
555 18-06-2018 00:00:00 18.5725 C 66.5167 %
556 19-06-2018 00:00:00 19.3025 C 68.1667 %
557 20-06-2018 00:00:00 21.34417 C 62.6417 %
558 21-06-2018 00:00:00 20.40083 C 61.7667 %
559 22-06-2018 00:00:00 18.12583 C 59.1417 %
560 23-06-2018 00:00:00 16.91917 C 60.9000 %
561 24-06-2018 00:00:00 17.08583 C 64.6833 %
562 25-06-2018 00:00:00 17.72833 C 66.0250 %
563 26-06-2018 00:00:00 18.48917 C 62.1583 %
564 27-06-2018 00:00:00 19.815 C 57.9000 %
565 28-06-2018 00:00:00 20.73667 C 53.0667 %
566 29-06-2018 00:00:00 22.01 C 53.8250 %
567 30-06-2018 00:00:00 22.90917 C 48.2667 %
568 01-07-2018 00:00:00 21.50833 C 49.2500 %
569 02-07-2018 00:00:00 21.34083 C 43.1083 %
570 03-07-2018 00:00:00 20.70167 C 49.9250 %
571 04-07-2018 00:00:00 21.1075 C 60.3667 %
572 05-07-2018 00:00:00 21.2225 C 66.7750 %
573 06-07-2018 00:00:00 20.8225 C 63.6917 %
574 07-07-2018 00:00:00 20.45126 C 62.5294 %
575 08-07-2018 00:00:00 20.11833 C 59.9000 %
Sensor: Nr:Datum:Temp:Feuchte:
G-T/H 576 09-07-2018 00:00:00 20.74917 C 55.1417 %
577 10-07-2018 00:00:00 20.3825 C 58.3167 %
578 11-07-2018 00:00:00 18.89583 C 62.6083 %
579 12-07-2018 00:00:00 18.92167 C 65.2500 %
580 13-07-2018 00:00:00 20.39417 C 62.1167 %
581 14-07-2018 00:00:00 20.52583 C 63.2833 %
582 15-07-2018 00:00:00 20.67417 C 63.4333 %
583 16-07-2018 00:00:00 20.8475 C 63.2583 %
584 17-07-2018 00:00:00 20.97167 C 63.0667 %
585 18-07-2018 00:00:00 20.9325 C 59.6167 %
586 19-07-2018 00:00:00 21.11667 C 54.9500 %
587 20-07-2018 00:00:00 21.86917 C 52.9083 %
588 21-07-2018 00:00:00 21.57333 C 58.8500 %
589 22-07-2018 00:00:00 20.75417 C 62.4750 %
590 23-07-2018 00:00:00 22.1575 C 57.9833 %
591 24-07-2018 00:00:00 23.88 C 52.9250 %
592 25-07-2018 00:00:00 24.83333 C 49.4917 %
593 26-07-2018 00:00:00 25.99417 C 48.0750 %
594 27-07-2018 00:00:00 25.445 C 46.9000 %
595 28-07-2018 00:00:00 24.04917 C 55.1667 %
596 29-07-2018 00:00:00 22.61667 C 58.5167 %
597 30-07-2018 00:00:00 24.22583 C 54.8000 %
598 31-07-2018 00:00:00 25.41833 C 51.8250 %
599 01-08-2018 00:00:00 23.80667 C 61.0833 %
600 02-08-2018 00:00:00 23.36417 C 62.3583 %
Sensor: Nr:Datum:Temp:Feuchte:
G-T/H 601 03-08-2018 00:00:00 24.53167 C 58.5333 %
602 04-08-2018 00:00:00 25.9125 C 50.5583 %
603 05-08-2018 00:00:00 24.74417 C 53.5917 %
604 06-08-2018 00:00:00 24.53333 C 49.9583 %
605 07-08-2018 00:00:00 24.12667 C 54.2583 %
606 08-08-2018 00:00:00 24.27667 C 57.4917 %
607 09-08-2018 00:00:00 23.23333 C 60.5250 %
608 10-08-2018 00:00:00 21.49417 C 54.0000 %
609 11-08-2018 00:00:00 20.81667 C 56.0583 %
610 12-08-2018 00:00:00 20.13 C 56.1333 %
611 13-08-2018 00:00:00 20.07083 C 60.5667 %
612 14-08-2018 00:00:00 19.80333 C 63.5000 %
613 15-08-2018 00:00:00 19.82917 C 65.0667 %
614 16-08-2018 00:00:00 19.9875 C 64.3500 %
615 17-08-2018 00:00:00 20.46083 C 64.9583 %
616 18-08-2018 00:00:00 19.96167 C 62.2667 %
617 19-08-2018 00:00:00 19.83667 C 62.1667 %
618 20-08-2018 00:00:00 21.2525 C 62.2667 %
619 21-08-2018 00:00:00 21.17667 C 63.9333 %
620 22-08-2018 00:00:00 21.1725 C 64.1750 %
621 23-08-2018 00:00:00 21.47667 C 64.7000 %
622 24-08-2018 00:00:00 21.1275 C 62.0417 %
623 25-08-2018 00:00:00 19.5075 C 59.1667 %
624 26-08-2018 00:00:00 18.22417 C 55.7083 %
625 27-08-2018 00:00:00 18.48167 C 60.4500 %
Sensor: Nr:Datum:Temp:Feuchte:
G-T/H 626 28-08-2018 00:00:00 18.53833 C 61.2250 %
627 29-08-2018 00:00:00 18.56917 C 62.2417 %
628 30-08-2018 00:00:00 18.82333 C 63.4833 %
629 31-08-2018 00:00:00 18.3025 C 59.8750 %
630 01-09-2018 00:00:00 17.4825 C 59.8917 %
631 02-09-2018 00:00:00 16.9325 C 62.1583 %
632 03-09-2018 00:00:00 18.13333 C 66.0000 %
633 04-09-2018 00:00:00 19.61083 C 66.7083 %
634 05-09-2018 00:00:00 19.59583 C 67.1750 %
635 06-09-2018 00:00:00 19.38917 C 68.3667 %
636 07-09-2018 00:00:00 18.6775 C 67.7917 %
637 08-09-2018 00:00:00 17.10833 C 59.8333 %
638 09-09-2018 00:00:00 17.1975 C 64.7667 %
639 10-09-2018 00:00:00 18.47583 C 60.5250 %
640 11-09-2018 00:00:00 19.45417 C 58.4917 %
641 12-09-2018 00:00:00 18.84083 C 60.8833 %
642 13-09-2018 00:00:00 18.58083 C 66.2167 %
643 14-09-2018 00:00:00 18.04833 C 65.0000 %
644 15-09-2018 00:00:00 17.66667 C 59.8833 %
645 16-09-2018 00:00:00 16.83 C 61.8000 %
646 17-09-2018 00:00:00 17.8475 C 57.0583 %
647 18-09-2018 00:00:00 19.79417 C 56.2333 %
648 19-09-2018 00:00:00 21.03083 C 58.0583 %
649 20-09-2018 00:00:00 20.82 C 55.5500 %
650 21-09-2018 00:00:00 19.29417 C 59.4833 %
Sensor: Nr:Datum:Temp:Feuchte:
G-T/H 651 22-09-2018 00:00:00 17.24917 C 60.5250 %
652 23-09-2018 00:00:00 16.50167 C 65.7500 %
653 24-09-2018 00:00:00 15.14583 C 63.3167 %
654 25-09-2018 00:00:00 13.7275 C 62.7333 %
655 26-09-2018 00:00:00 13.02583 C 63.2917 %
656 27-09-2018 00:00:00 13.0625 C 65.7333 %
657 28-09-2018 00:00:00 13.53583 C 69.5083 %
658 29-09-2018 00:00:00 12.62 C 64.5750 %
659 30-09-2018 00:00:00 11.83417 C 63.4000 %
660 01-10-2018 00:00:00 12.43167 C 68.0167 %
661 02-10-2018 00:00:00 12.47917 C 67.0333 %
662 03-10-2018 00:00:00 13.125 C 70.8750 %
663 04-10-2018 00:00:00 12.85083 C 66.8417 %
664 05-10-2018 00:00:00 13.175 C 68.1250 %
665 06-10-2018 00:00:00 12.79833 C 73.9167 %
666 07-10-2018 00:00:00 14.22167 C 74.0833 %
667 08-10-2018 00:00:00 13.52083 C 69.3917 %
668 09-10-2018 00:00:00 13.39083 C 72.8583 %
669 10-10-2018 00:00:00 13.75333 C 75.3000 %
670 11-10-2018 00:00:00 13.985 C 75.0167 %
671 12-10-2018 00:00:00 14.54333 C 75.8417 %
672 13-10-2018 00:00:00 15.69 C 72.6083 %
673 14-10-2018 00:00:00 15.11667 C 72.1917 %
674 15-10-2018 00:00:00 14.6725 C 73.1583 %
675 16-10-2018 00:00:00 14.08333 C 72.8917 %
Sensor: Nr:Datum:Temp:Feuchte:
G-T/H 676 17-10-2018 00:00:00 13.86667 C 73.4083 %
677 18-10-2018 00:00:00 14.26083 C 74.7500 %
678 19-10-2018 00:00:00 14.28333 C 73.2417 %
679 20-10-2018 00:00:00 14.01833 C 72.8250 %
680 21-10-2018 00:00:00 12.52583 C 67.5917 %
681 22-10-2018 00:00:00 11.7575 C 67.8750 %
682 23-10-2018 00:00:00 11.71417 C 69.2333 %
683 24-10-2018 00:00:00 13.1175 C 73.3417 %
684 25-10-2018 00:00:00 13.88083 C 73.4083 %
685 26-10-2018 00:00:00 13.5375 C 68.0250 %
686 27-10-2018 00:00:00 12.19667 C 65.8417 %
687 28-10-2018 00:00:00 10.9176 C 62.4880 %
688 29-10-2018 00:00:00 10.95583 C 65.6250 %
689 30-10-2018 00:00:00 10.86333 C 67.5167 %
690 31-10-2018 00:00:00 10.8775 C 68.4750 %
691 01-11-2018 00:00:00 10.72083 C 69.2750 %
692 02-11-2018 00:00:00 11.285 C 72.4667 %
693 03-11-2018 00:00:00 10.44 C 67.0750 %
694 04-11-2018 00:00:00 10.265 C 68.6167 %
695 05-11-2018 00:00:00 11.60167 C 72.5750 %
696 06-11-2018 00:00:00 11.5475 C 72.0167 %
697 07-11-2018 00:00:00 11.24083 C 72.4083 %
698 08-11-2018 00:00:00 11.87833 C 74.0333 %
699 09-11-2018 00:00:00 11.62333 C 73.2750 %
700 10-11-2018 00:00:00 12.22833 C 74.7000 %
Sensor: Nr:Datum:Temp:Feuchte:
G-T/H 701 11-11-2018 00:00:00 12.73917 C 75.7833 %
702 12-11-2018 00:00:00 13.255 C 75.6083 %
703 13-11-2018 00:00:00 13.2975 C 75.3417 %
704 14-11-2018 00:00:00 11.54667 C 70.8583 %
705 15-11-2018 00:00:00 11.19417 C 71.8333 %
706 16-11-2018 00:00:00 10.76833 C 68.8833 %
707 17-11-2018 00:00:00 9.25167 C 68.0000 %
708 18-11-2018 00:00:00 8.3775 C 68.4167 %
709 19-11-2018 00:00:00 8.15 C 69.1333 %
710 20-11-2018 00:00:00 8.56667 C 68.8833 %
711 21-11-2018 00:00:00 8.45333 C 69.6833 %
712 22-11-2018 00:00:00 8.65333 C 70.9083 %
713 23-11-2018 00:00:00 7.69667 C 69.4917 %
714 24-11-2018 00:00:00 8.0325 C 72.4750 %
715 25-11-2018 00:00:00 9.05667 C 73.9333 %
716 26-11-2018 00:00:00 9.6625 C 74.3250 %
717 27-11-2018 00:00:00 9.61333 C 72.8000 %
718 28-11-2018 00:00:00 8.91917 C 71.9583 %
719 29-11-2018 00:00:00 9.26083 C 73.8000 %
720 30-11-2018 00:00:00 9.63 C 74.7833 %
721 01-12-2018 00:00:00 9.92417 C 74.6250 %
722 02-12-2018 00:00:00 10.7275 C 75.6167 %
723 03-12-2018 00:00:00 11.87333 C 76.5417 %
724 04-12-2018 00:00:00 11.3275 C 72.0250 %
725 05-12-2018 00:00:00 9.61933 C 69.0504 %
Sensor: Nr:Datum:Temp:Feuchte:
G-T/H 726 06-12-2018 00:00:00 10.40583 C 72.9583 %
727 07-12-2018 00:00:00 11.82917 C 74.0583 %
728 08-12-2018 00:00:00 11.04667 C 70.6667 %
729 09-12-2018 00:00:00 10.81167 C 72.8000 %
730 10-12-2018 00:00:00 10.01083 C 71.3083 %
731 11-12-2018 00:00:00 9.19083 C 71.8583 %
732 12-12-2018 00:00:00 8.70667 C 72.1583 %
733 13-12-2018 00:00:00 8.07083 C 70.1167 %
734 14-12-2018 00:00:00 7.78 C 68.6583 %
735 15-12-2018 00:00:00 7.575 C 68.1083 %
736 16-12-2018 00:00:00 7.33667 C 67.4333 %
737 17-12-2018 00:00:00 7.74583 C 71.2333 %
738 18-12-2018 00:00:00 8.3475 C 72.4667 %
739 19-12-2018 00:00:00 8.60083 C 72.9417 %
740 20-12-2018 00:00:00 9.3175 C 74.0000 %
741 21-12-2018 00:00:00 10.0375 C 74.8333 %
742 22-12-2018 00:00:00 10.99417 C 74.3000 %
743 23-12-2018 00:00:00 10.525 C 74.6917 %
744 24-12-2018 00:00:00 10.26583 C 72.2917 %
745 25-12-2018 00:00:00 8.6825 C 71.1167 %
746 26-12-2018 00:00:00 7.58083 C 70.1333 %
747 27-12-2018 00:00:00 6.98167 C 70.2333 %
748 28-12-2018 00:00:00 6.8575 C 71.5833 %
749 29-12-2018 00:00:00 7.085 C 72.4583 %
750 30-12-2018 00:00:00 8.24 C 74.4417 %
Sensor: Nr:Datum:Temp:Feuchte:
G-T/H 751 31-12-2018 00:00:00 9.18833 C 75.6083 %
752 01-01-2019 00:00:00 9.65583 C 75.8167 %
753 02-01-2019 00:00:00 8.91333 C 73.4000 %
754 03-01-2019 00:00:00 7.65417 C 72.7000 %
755 04-01-2019 00:00:00 7.72667 C 73.7750 %
756 05-01-2019 00:00:00 8.26833 C 74.6083 %
757 06-01-2019 00:00:00 8.8 C 75.9250 %
758 07-01-2019 00:00:00 8.94 C 75.0167 %
759 08-01-2019 00:00:00 9.01833 C 74.5417 %
760 09-01-2019 00:00:00 8.46417 C 73.0417 %
761 10-01-2019 00:00:00 7.90083 C 71.3750 %
762 11-01-2019 00:00:00 7.57167 C 72.1167 %
763 12-01-2019 00:00:00 8.24417 C 74.2500 %
764 13-01-2019 00:00:00 8.91667 C 75.6333 %
765 14-01-2019 00:00:00 9.11083 C 74.7417 %
766 15-01-2019 00:00:00 8.33333 C 74.3833 %
767 16-01-2019 00:00:00 8.5125 C 74.7083 %
768 17-01-2019 00:00:00 8.4975 C 74.5500 %
769 18-01-2019 00:00:00 7.79333 C 72.6583 %
770 19-01-2019 00:00:00 6.99833 C 69.2000 %
771 20-01-2019 00:00:00 6.61083 C 64.8583 %
772 21-01-2019 00:00:00 6.18667 C 61.1750 %
773 22-01-2019 00:00:00 6.04833 C 60.2083 %
774 23-01-2019 00:00:00 6.2575 C 63.4917 %
775 24-01-2019 00:00:00 6.30833 C 65.6583 %
Sensor: Nr:Datum:Temp:Feuchte:
G-T/H 776 25-01-2019 00:00:00 6.2425 C 67.2833 %
777 26-01-2019 00:00:00 6.51833 C 71.7083 %
778 27-01-2019 00:00:00 7.75333 C 73.9667 %
779 28-01-2019 00:00:00 7.77417 C 74.2417 %
780 29-01-2019 00:00:00 7.46167 C 73.9917 %
781 30-01-2019 00:00:00 6.65667 C 69.5667 %
782 31-01-2019 00:00:00 6.54333 C 72.1667 %
783 01-02-2019 00:00:00 6.475 C 73.4167 %
784 02-02-2019 00:00:00 6.70083 C 74.6612 %
785 03-02-2019 00:00:00 6.98667 C 74.3417 %
786 04-02-2019 00:00:00 6.68333 C 73.8083 %
787 05-02-2019 00:00:00 7.12 C 74.5083 %
788 06-02-2019 00:00:00 6.9875 C 73.4333 %
789 07-02-2019 00:00:00 7.0025 C 74.8750 %
790 08-02-2019 00:00:00 7.93833 C 76.1083 %
791 09-02-2019 00:00:00 8.85917 C 76.1583 %
792 10-02-2019 00:00:00 9.2225 C 75.9667 %
793 11-02-2019 00:00:00 8.8125 C 75.1083 %
794 12-02-2019 00:00:00 8.09167 C 74.2167 %
795 13-02-2019 00:00:00 7.47583 C 73.5000 %
796 14-02-2019 00:00:00 6.95583 C 72.5083 %
797 15-02-2019 00:00:00 6.6825 C 71.6250 %
798 16-02-2019 00:00:00 6.53917 C 73.3083 %
799 17-02-2019 00:00:00 6.63667 C 74.1417 %
800 18-02-2019 00:00:00 6.65583 C 74.3000 %
Sensor: Nr:Datum:Temp:Feuchte:
G-T/H 801 19-02-2019 00:00:00 7.19417 C 75.8083 %
802 20-02-2019 00:00:00 7.495 C 75.5500 %
803 21-02-2019 00:00:00 7.76167 C 75.7333 %
804 22-02-2019 00:00:00 9.21417 C 77.2250 %
805 23-02-2019 00:00:00 9.20583 C 74.8917 %
806 24-02-2019 00:00:00 8.01917 C 72.1333 %
807 25-02-2019 00:00:00 7.5975 C 71.6250 %
808 26-02-2019 00:00:00 7.74083 C 71.5500 %
809 27-02-2019 00:00:00 6.63667 C 68.6917 %
810 28-02-2019 00:00:00 8.11917 C 73.1500 %
811 01-03-2019 00:00:00 9.37083 C 74.7583 %
812 02-03-2019 00:00:00 9.69333 C 72.8750 %
813 03-03-2019 00:00:00 10.36917 C 73.5083 %
814 04-03-2019 00:00:00 10.60917 C 73.1083 %
815 05-03-2019 00:00:00 9.71 C 71.6083 %
816 06-03-2019 00:00:00 9.71 C 73.4333 %
817 07-03-2019 00:00:00 10.48417 C 73.6500 %
818 08-03-2019 00:00:00 10.0575 C 72.7250 %
819 09-03-2019 00:00:00 10.17167 C 73.4333 %
820 10-03-2019 00:00:00 10.60917 C 71.4667 %
821 11-03-2019 00:00:00 9.44833 C 67.3667 %
822 12-03-2019 00:00:00 8.92417 C 70.4667 %
823 13-03-2019 00:00:00 9.345 C 71.3250 %
824 14-03-2019 00:00:00 9.13333 C 72.3750 %
825 15-03-2019 00:00:00 10.055 C 74.0583 %
Sensor: Nr:Datum:Temp:Feuchte:
G-T/H 826 16-03-2019 00:00:00 10.57417 C 72.1333 %
827 17-03-2019 00:00:00 9.70583 C 61.2083 %
828 18-03-2019 00:00:00 6.8675 C 62.4667 %
829 19-03-2019 00:00:00 6.02333 C 59.7583 %
830 20-03-2019 00:00:00 7.52333 C 64.5167 %
831 21-03-2019 00:00:00 9.29167 C 60.4917 %
832 22-03-2019 00:00:00 10.14833 C 61.3250 %
833 23-03-2019 00:00:00 10.15917 C 64.7250 %
834 24-03-2019 00:00:00 9.54833 C 67.2167 %
835 25-03-2019 00:00:00 9.15583 C 67.9000 %
836 26-03-2019 00:00:00 9.0525 C 69.7250 %
837 27-03-2019 00:00:00 9.47917 C 69.9333 %
838 28-03-2019 00:00:00 9.49583 C 69.9417 %
839 29-03-2019 00:00:00 10.2825 C 66.2583 %
840 30-03-2019 00:00:00 9.79667 C 60.6083 %
841 31-03-2019 00:00:00 11.2313 C 64.9130 %
842 01-04-2019 00:00:00 11.50333 C 60.3833 %
843 02-04-2019 00:00:00 11.2875 C 63.6333 %
844 03-04-2019 00:00:00 11.49833 C 67.0000 %
845 04-04-2019 00:00:00 10.56333 C 67.8833 %
846 05-04-2019 00:00:00 9.87333 C 68.5417 %
847 06-04-2019 00:00:00 10.76333 C 69.0417 %
848 07-04-2019 00:00:00 11.4925 C 68.0667 %
849 08-04-2019 00:00:00 12.30917 C 70.6833 %
850 09-04-2019 00:00:00 12.2875 C 74.7333 %
Sensor: Nr:Datum:Temp:Feuchte:
G-T/H 851 10-04-2019 00:00:00 12.35917 C 56.9917 %
852 11-04-2019 00:00:00 10.73083 C 48.4917 %
853 12-04-2019 00:00:00 9.57417 C 46.6333 %
854 13-04-2019 00:00:00 9.48583 C 55.2583 %
855 14-04-2019 00:00:00 9.175 C 58.5167 %
856 15-04-2019 00:00:00 10.07667 C 62.0833 %
857 16-04-2019 00:00:00 11.07083 C 62.2083 %
858 17-04-2019 00:00:00 12.33417 C 65.8333 %
859 18-04-2019 00:00:00 13.09417 C 62.0833 %
860 19-04-2019 00:00:00 14.9125 C 51.5500 %
861 20-04-2019 00:00:00 15.6775 C 48.0417 %
862 21-04-2019 00:00:00 16.29 C 47.3167 %
863 22-04-2019 00:00:00 15.22333 C 52.2417 %
864 23-04-2019 00:00:00 15.61417 C 53.2333 %
865 24-04-2019 00:00:00 15.37833 C 59.4167 %
866 25-04-2019 00:00:00 14.5575 C 61.5833 %
867 26-04-2019 00:00:00 14.28667 C 64.1250 %
868 27-04-2019 00:00:00 13.445 C 64.1833 %
869 28-04-2019 00:00:00 12.45 C 64.1833 %
870 29-04-2019 00:00:00 11.95083 C 63.4083 %
871 30-04-2019 00:00:00 13.89833 C 57.8083 %
872 01-05-2019 00:00:00 14.135 C 60.2833 %
873 02-05-2019 00:00:00 13.82333 C 62.1750 %
874 03-05-2019 00:00:00 13.86417 C 59.4750 %
875 04-05-2019 00:00:00 12.72083 C 59.0083 %
Sensor: Nr:Datum:Temp:Feuchte:
G-T/H 876 05-05-2019 00:00:00 11.31667 C 59.7917 %
877 06-05-2019 00:00:00 11.38833 C 61.2833 %
878 07-05-2019 00:00:00 11.88083 C 62.6250 %
879 08-05-2019 00:00:00 11.97 C 62.9333 %
880 09-05-2019 00:00:00 12.35167 C 66.7333 %
881 10-05-2019 00:00:00 12.92101 C 67.6218 %
882 11-05-2019 00:00:00 13.15833 C 68.0833 %
883 12-05-2019 00:00:00 12.12833 C 64.0833 %
884 13-05-2019 00:00:00 12.045 C 60.0000 %
885 14-05-2019 00:00:00 12.31083 C 59.7417 %
886 15-05-2019 00:00:00 12.7725 C 52.9833 %
887 16-05-2019 00:00:00 13.015 C 56.6333 %
888 17-05-2019 00:00:00 13.21917 C 63.1000 %
889 18-05-2019 00:00:00 14.04667 C 66.4250 %
890 19-05-2019 00:00:00 14.825 C 68.0750 %
891 20-05-2019 00:00:00 14.84583 C 68.8000 %
892 21-05-2019 00:00:00 14.15167 C 70.0167 %
893 22-05-2019 00:00:00 13.71167 C 69.7583 %
894 23-05-2019 00:00:00 15.29917 C 61.3750 %
895 24-05-2019 00:00:00 17.54 C 55.6333 %
896 25-05-2019 00:00:00 17.29083 C 56.6250 %
897 26-05-2019 00:00:00 16.44583 C 60.8167 %
898 27-05-2019 00:00:00 16.3925 C 64.3917 %
899 28-05-2019 00:00:00 15.71583 C 66.5333 %
900 29-05-2019 00:00:00 16.0475 C 54.4250 %
Sensor: Nr:Datum:Temp:Feuchte:
G-T/H 901 30-05-2019 00:00:00 15.75417 C 61.4167 %
902 31-05-2019 00:00:00 17.74167 C 65.2667 %
903 01-06-2019 00:00:00 18.025 C 65.0750 %
904 02-06-2019 00:00:00 18.60667 C 66.0917 %
905 03-06-2019 00:00:00 19.92333 C 65.8667 %
906 04-06-2019 00:00:00 19.69667 C 66.1500 %
907 05-06-2019 00:00:00 20.025 C 66.6917 %
908 06-06-2019 00:00:00 19.2775 C 64.1917 %
909 07-06-2019 00:00:00 17.86583 C 60.1250 %
910 08-06-2019 00:00:00 17.565 C 60.2333 %
911 09-06-2019 00:00:00 16.99667 C 61.5667 %
912 10-06-2019 00:00:00 17.96333 C 64.8583 %
913 11-06-2019 00:00:00 18.18333 C 66.3917 %
914 12-06-2019 00:00:00 17.70333 C 67.3917 %
915 13-06-2019 00:00:00 17.89167 C 58.1667 %
916 14-06-2019 00:00:00 19.59083 C 60.6083 %
917 15-06-2019 00:00:00 19.6625 C 64.9917 %
918 16-06-2019 00:00:00 19.56917 C 62.4417 %
919 17-06-2019 00:00:00 19.01167 C 62.8417 %
920 18-06-2019 00:00:00 21.23667 C 58.9250 %
921 19-06-2019 00:00:00 21.53167 C 61.1000 %
922 20-06-2019 00:00:00 20.7375 C 63.5667 %
923 21-06-2019 00:00:00 20.53083 C 52.5000 %
924 22-06-2019 00:00:00 20.16917 C 54.8083 %
925 23-06-2019 00:00:00 21.31917 C 57.1667 %
Sensor: Nr:Datum:Temp:Feuchte:
G-T/H 926 24-06-2019 00:00:00 23.94167 C 55.3000 %
927 25-06-2019 00:00:00 23.93083 C 58.5083 %
928 26-06-2019 00:00:00 24.37417 C 62.9417 %
929 27-06-2019 00:00:00 23.60667 C 60.8333 %
930 28-06-2019 00:00:00 22.21417 C 58.6667 %
931 29-06-2019 00:00:00 24.105 C 45.4667 %
932 30-06-2019 00:00:00 23.46833 C 52.6667 %
933 01-07-2019 00:00:00 23.14417 C 56.9333 %
934 02-07-2019 00:00:00 21.5975 C 49.7667 %
935 03-07-2019 00:00:00 20.46667 C 46.5000 %
936 04-07-2019 00:00:00 20.24 C 44.2750 %
937 05-07-2019 00:00:00 20.99583 C 47.4667 %
938 06-07-2019 00:00:00 21.055 C 53.0250 %
939 07-07-2019 00:00:00 20.39667 C 54.9083 %
940 08-07-2019 00:00:00 18.37167 C 51.1250 %
941 09-07-2019 00:00:00 18.10583 C 49.1417 %
942 10-07-2019 00:00:00 18.91917 C 42.0333 %
943 11-07-2019 00:00:00 18.91167 C 59.7083 %
944 12-07-2019 00:00:00 18.3025 C 73.7917 %
945 13-07-2019 00:00:00 18.47333 C 67.7417 %
946 14-07-2019 00:00:00 18.46917 C 65.0917 %
947 15-07-2019 00:00:00 18.2725 C 59.6250 %
948 16-07-2019 00:00:00 17.95917 C 58.3667 %
949 17-07-2019 00:00:00 18.23667 C 61.2917 %
950 18-07-2019 00:00:00 19.79417 C 58.3083 %
Sensor: Nr:Datum:Temp:Feuchte:
G-T/H 951 19-07-2019 00:00:00 19.79417 C 61.5917 %
952 20-07-2019 00:00:00 19.78583 C 63.8500 %
953 21-07-2019 00:00:00 20.41333 C 63.8583 %
954 22-07-2019 00:00:00 22.33167 C 54.5167 %
955 23-07-2019 00:00:00 22.5225 C 56.8667 %
956 24-07-2019 00:00:00 23.21833 C 58.3417 %
957 25-07-2019 00:00:00 24.345 C 57.0083 %
958 26-07-2019 00:00:00 24.17667 C 57.8500 %
959 27-07-2019 00:00:00 23.54 C 61.3083 %
960 28-07-2019 00:00:00 22.08333 C 64.8167 %
961 29-07-2019 00:00:00 21.58833 C 59.7917 %
962 30-07-2019 00:00:00 21.785 C 58.7750 %
963 31-07-2019 00:00:00 22.4025 C 50.4333 %
964 01-08-2019 00:00:00 21.77083 C 49.7000 %
965 02-08-2019 00:00:00 21.34583 C 55.7750 %
966 03-08-2019 00:00:00 20.90667 C 59.1167 %
967 04-08-2019 00:00:00 20.4525 C 59.4750 %
968 05-08-2019 00:00:00 22.07 C 57.0167 %
969 06-08-2019 00:00:00 21.48083 C 59.7417 %
970 07-08-2019 00:00:00 21.08 C 63.1500 %
971 08-08-2019 00:00:00 20.60333 C 62.6167 %
972 09-08-2019 00:00:00 20.50167 C 64.6000 %
973 10-08-2019 00:00:00 20.38917 C 65.0917 %
974 11-08-2019 00:00:00 19.8725 C 64.3750 %
975 12-08-2019 00:00:00 19.0475 C 65.6000 %
Sensor: Nr:Datum:Temp:Feuchte:
G-T/H 976 13-08-2019 00:00:00 18.645 C 58.8417 %
977 14-08-2019 00:00:00 18.54583 C 57.0833 %
978 15-08-2019 00:00:00 18.91583 C 62.6250 %
979 16-08-2019 00:00:00 18.59917 C 65.5583 %
980 17-08-2019 00:00:00 18.78167 C 67.1583 %
981 18-08-2019 00:00:00 19.07417 C 68.7167 %
982 19-08-2019 00:00:00 19.70167 C 61.8833 %
983 20-08-2019 00:00:00 18.7775 C 58.6500 %
984 21-08-2019 00:00:00 18.37 C 62.6500 %
985 22-08-2019 00:00:00 18.7725 C 58.7167 %
986 23-08-2019 00:00:00 19.34333 C 56.0250 %
987 24-08-2019 00:00:00 19.1825 C 58.5917 %
988 25-08-2019 00:00:00 19.53 C 63.3500 %
989 26-08-2019 00:00:00 21.84417 C 64.5833 %
990 27-08-2019 00:00:00 21.31417 C 66.1667 %
991 28-08-2019 00:00:00 21.07 C 66.6583 %
992 29-08-2019 00:00:00 21.03417 C 66.8417 %
993 30-08-2019 00:00:00 20.6775 C 66.8917 %
994 31-08-2019 00:00:00 20.2775 C 66.5917 %
995 01-09-2019 00:00:00 20.59167 C 65.4167 %
996 02-09-2019 00:00:00 18.59583 C 51.3417 %
997 03-09-2019 00:00:00 16.5475 C 53.5583 %
998 04-09-2019 00:00:00 18.68667 C 56.9667 %
999 05-09-2019 00:00:00 18.34667 C 60.0000 %
1000 06-09-2019 00:00:00 17.44333 C 56.1750 %
Sensor: Nr:Datum:Temp:Feuchte:
G-T/H 1001 07-09-2019 00:00:00 17.36583 C 60.4417 %
1002 08-09-2019 00:00:00 16.54309 C 65.9350 %
1003 09-09-2019 00:00:00 16.06067 C 66.7333 %
1004 10-09-2019 00:00:00 15.23333 C 63.6597 %
1005 11-09-2019 00:00:00 15.74097 C 61.0833 %
1006 12-09-2019 00:00:00 17.93194 C 67.6319 %
1007 13-09-2019 00:00:00 18.68472 C 70.9653 %
1008 14-09-2019 00:00:00 18.01181 C 65.5903 %
1009 15-09-2019 00:00:00 17.60347 C 61.9722 %
1010 16-09-2019 00:00:00 17.78264 C 60.7361 %
1011 17-09-2019 00:00:00 17.67431 C 62.7083 %
1012 18-09-2019 00:00:00 15.39444 C 57.2778 %
1013 19-09-2019 00:00:00 14.12361 C 57.3125 %
1014 20-09-2019 00:00:00 13.22639 C 59.3056 %
1015 21-09-2019 00:00:00 15.10833 C 52.5278 %
1016 22-09-2019 00:00:00 15.13194 C 59.2083 %
1017 23-09-2019 00:00:00 16.27153 C 64.4028 %
1018 24-09-2019 00:00:00 16.11528 C 66.2778 %
1019 25-09-2019 00:00:00 16.20556 C 67.8681 %
1020 26-09-2019 00:00:00 16.33542 C 69.4097 %
1021 27-09-2019 00:00:00 16.76458 C 69.3611 %
1022 28-09-2019 00:00:00 16.47083 C 68.9792 %
1023 29-09-2019 00:00:00 16.41458 C 69.6528 %
1024 30-09-2019 00:00:00 16.64236 C 66.7917 %
1025 01-10-2019 00:00:00 16.54167 C 68.3542 %
Sensor: Nr:Datum:Temp:Feuchte:
G-T/H 1026 02-10-2019 00:00:00 16.15694 C 67.3056 %
1027 03-10-2019 00:00:00 14.67222 C 66.7361 %
1028 04-10-2019 00:00:00 14.15556 C 70.1319 %
1029 05-10-2019 00:00:00 14.31875 C 71.1667 %
1030 06-10-2019 00:00:00 13.69306 C 70.7847 %
1031 07-10-2019 00:00:00 13.58056 C 72.7153 %
1032 08-10-2019 00:00:00 14.14097 C 74.1597 %
1033 09-10-2019 00:00:00 14.23472 C 74.0486 %
1034 10-10-2019 00:00:00 14.00139 C 74.0278 %
1035 11-10-2019 00:00:00 13.98819 C 74.3333 %
1036 12-10-2019 00:00:00 14.71181 C 71.7639 %
1037 13-10-2019 00:00:00 15.13472 C 74.9097 %
1038 14-10-2019 00:00:00 16.34722 C 74.3958 %
1039 15-10-2019 00:00:00 15.98125 C 73.6597 %
1040 16-10-2019 00:00:00 15.42708 C 73.2986 %
1041 17-10-2019 00:00:00 15.28056 C 74.7292 %
1042 18-10-2019 00:00:00 15.18681 C 74.6042 %
1043 19-10-2019 00:00:00 14.72222 C 74.1944 %
1044 20-10-2019 00:00:00 14.40278 C 81.1597 %
1045 21-10-2019 00:00:00 14.60625 C 80.9028 %
1046 22-10-2019 00:00:00 14.62153 C 77.5000 %
1047 23-10-2019 00:00:00 14.00764 C 76.3542 %
1048 24-10-2019 00:00:00 14.52986 C 78.0139 %
1049 25-10-2019 00:00:00 15.10694 C 74.8681 %
1050 26-10-2019 00:00:00 14.99028 C 74.2153 %
Sensor: Nr:Datum:Temp:Feuchte:
G-T/H 1051 27-10-2019 00:00:00 14.43933 C 74.9333 %
1052 28-10-2019 00:00:00 12.81389 C 71.1806 %
1053 29-10-2019 00:00:00 12.35556 C 71.6389 %
1054 30-10-2019 00:00:00 10.98611 C 65.8194 %
1055 31-10-2019 00:00:00 9.49097 C 64.1736 %
1056 01-11-2019 00:00:00 9.67014 C 69.2569 %
1057 02-11-2019 00:00:00 12.01181 C 74.2222 %
1058 03-11-2019 00:00:00 12.91806 C 75.4861 %
1059 04-11-2019 00:00:00 12.97569 C 75.6250 %
1060 05-11-2019 00:00:00 12.58194 C 75.9444 %
1061 06-11-2019 00:00:00 12.33194 C 75.6528 %
1062 07-11-2019 00:00:00 12.18403 C 75.3403 %
1063 08-11-2019 00:00:00 11.13611 C 70.1181 %
1064 09-11-2019 00:00:00 11.02014 C 69.0972 %
1065 10-11-2019 00:00:00 9.95556 C 68.3056 %
1066 11-11-2019 00:00:00 9.96458 C 71.2708 %
1067 12-11-2019 00:00:00 10.11458 C 72.0972 %
1068 13-11-2019 00:00:00 10.0125 C 72.4097 %
1069 14-11-2019 00:00:00 9.73403 C 68.3958 %
1070 15-11-2019 00:00:00 9.68819 C 69.4028 %
1071 16-11-2019 00:00:00 9.6125 C 68.7083 %
1072 17-11-2019 00:00:00 9.03819 C 69.9306 %
1073 18-11-2019 00:00:00 9.47361 C 72.2500 %
1074 19-11-2019 00:00:00 9.40903 C 72.0833 %
1075 20-11-2019 00:00:00 8.93333 C 71.1181 %
Sensor: Nr:Datum:Temp:Feuchte:
G-T/H 1076 21-11-2019 00:00:00 8.40559 C 70.8182 %
1077 22-11-2019 00:00:00 8.70556 C 72.6736 %
1078 23-11-2019 00:00:00 9.32569 C 73.0972 %
1079 24-11-2019 00:00:00 9.08333 C 72.0764 %
1080 25-11-2019 00:00:00 9.04375 C 73.5069 %
1081 26-11-2019 00:00:00 9.85139 C 74.9375 %
1082 27-11-2019 00:00:00 10.87847 C 75.9236 %
1083 28-11-2019 00:00:00 11.51597 C 75.5069 %
1084 29-11-2019 00:00:00 11.25208 C 72.3542 %
1085 30-11-2019 00:00:00 9.66736 C 68.9097 %
1086 01-12-2019 00:00:00 8.81806 C 70.1806 %
1087 02-12-2019 00:00:00 8.35278 C 70.5417 %
1088 03-12-2019 00:00:00 8.74514 C 73.3472 %
1089 04-12-2019 00:00:00 8.79375 C 71.8403 %
1090 05-12-2019 00:00:00 7.92014 C 69.1458 %
1091 06-12-2019 00:00:00 7.57292 C 70.7014 %
1092 07-12-2019 00:00:00 8.97014 C 74.4514 %
1093 08-12-2019 00:00:00 10.25694 C 75.1667 %
1094 09-12-2019 00:00:00 10.48403 C 74.1111 %
1095 10-12-2019 00:00:00 9.34028 C 71.5903 %

Maximal/Minimal-Werte vom 11.12.2016 - 10.12.2019

Sensor Min Max Avg
Temp
(Aussen-T/F)
-12.4 °C
22-01-2017  07:59:17
46.2 °C
19-06-2017  18:30:17
11.06 °C
Feuchte
(Aussen-T/F)
20 %
11-12-2016  10:32:17
78 %
23-11-2017  06:30:17
32.41 %
Temp
(G-T/H)
2 °C
27-02-2018  07:01:17
29.7 °C
26-07-2018  16:25:17
13.56 °C
Feuchte
(G-T/H)
25 %
29-06-2019  18:04:17
85 %
16-10-2017  15:03:17
66.09 %

Die Daten stammen von einer Davis Vantage Pro 2 Wetter-Station und werden unter Linux mit der Software wview2wettercgi und aufbereitet. Alle Angaben erfolgen ohne Gewähr für ihre Vollständigkeit oder Richtigkeit.
Kontakt: Rainer Krienke krienke@uni-koblenz.de . Meine Webseiten an der Uni Koblenz oder privat.
Version: $Revision: 0.78 $